[[{"header":{"parameterUnit":"m.s-1","parameterCategory":1,"la1":30.6,"la2":29.2853,"lo1":-89.7004,"lo2":-87.6739,"dx":0.0162,"dy":0.0183,"nx":112,"ny":82,"refTime":"2023-01-19T06:00:00:Z","depth":0,"parameterNumber":2,"parameterNumberName":"U-component_of_WINDS"},"data":[0.0,0.0,0.0,0.0,0.0,0.0,0.0,0.0,0.0,0.0,0.0,0.0,0.0,0.0,0.0,0.0,0.0,0.0,0.0,0.0,0.0,0.0,0.0,0.0,0.0,0.0,0.0,0.0,0.0,0.0,0.0,0.0,0.0,0.0,0.0,0.0,0.0,0.0,0.0,0.0,0.0,0.0,0.0,0.0,0.0,0.0,0.0,0.0,0.0,0.0,0.0,0.0,0.0,0.0,0.0,0.0,0.0,0.0,0.0,0.0,0.0,0.0,0.0,0.0,0.0,0.0,0.0,0.0,0.0,0.0,0.0,0.0,0.0,0.0,0.0,0.0,0.0,0.0,0.0,0.0,0.0,0.0,0.0,0.0,0.0,0.0,0.0,0.0,0.0,0.0,0.0,2.5884,2.6387,2.6868,2.7282,2.6868,2.6627,2.6715,0.0,0.0,0.0,0.0,0.0,0.0,0.0,0.0,0.0,0.0,0.0,0.0,0.0,0.0,0.0,0.0,0.0,0.0,0.0,0.0,0.0,0.0,0.0,0.0,0.0,0.0,0.0,0.0,0.0,0.0,0.0,0.0,0.0,0.0,0.0,0.0,0.0,0.0,0.0,0.0,0.0,0.0,0.0,0.0,0.0,0.0,0.0,0.0,0.0,0.0,0.0,0.0,0.0,0.0,0.0,0.0,0.0,0.0,0.0,0.0,0.0,0.0,0.0,0.0,0.0,0.0,0.0,0.0,0.0,0.0,0.0,0.0,0.0,0.0,0.0,0.0,0.0,0.0,0.0,0.0,0.0,0.0,0.0,0.0,0.0,0.0,0.0,0.0,0.0,0.0,0.0,0.0,0.0,0.0,0.0,0.0,0.0,0.0,0.0,0.0,0.0,0.0,0.0,0.0,2.5468,2.5863,2.6693,2.7217,2.7282,2.6868,2.678,2.7151,0.0,0.0,0.0,0.0,0.0,0.0,0.0,0.0,0.0,0.0,0.0,0.0,0.0,0.0,0.0,0.0,0.0,0.0,0.0,0.0,0.0,0.0,0.0,0.0,0.0,0.0,0.0,0.0,0.0,0.0,0.0,0.0,0.0,0.0,0.0,0.0,0.0,0.0,0.0,0.0,0.0,0.0,0.0,0.0,0.0,0.0,0.0,0.0,0.0,0.0,0.0,0.0,0.0,0.0,0.0,0.0,0.0,0.0,0.0,0.0,0.0,0.0,0.0,0.0,0.0,0.0,0.0,0.0,0.0,0.0,0.0,0.0,0.0,0.0,0.0,0.0,0.0,0.0,0.0,0.0,0.0,0.0,0.0,0.0,0.0,0.0,0.0,0.0,0.0,0.0,0.0,0.0,0.0,0.0,0.0,0.0,0.0,0.0,0.0,0.0,0.0,0.0,0.0,2.6321,2.6409,2.6649,2.726,2.7697,2.7697,2.702,2.6802,2.726,2.6606,0.0,0.0,0.0,0.0,0.0,0.0,0.0,0.0,0.0,0.0,0.0,0.0,0.0,0.0,0.0,0.0,0.0,0.0,0.0,0.0,0.0,0.0,0.0,0.0,0.0,0.0,0.0,0.0,0.0,0.0,0.0,0.0,0.0,0.0,0.0,0.0,0.0,0.0,0.0,0.0,0.0,0.0,0.0,0.0,0.0,0.0,0.0,0.0,0.0,0.0,0.0,0.0,0.0,0.0,0.0,0.0,0.0,0.0,0.0,0.0,0.0,0.0,0.0,0.0,0.0,0.0,0.0,0.0,0.0,0.0,0.0,0.0,0.0,0.0,0.0,0.0,0.0,0.0,0.0,0.0,0.0,0.0,0.0,0.0,0.0,0.0,0.0,0.0,0.0,0.0,0.0,0.0,0.0,0.0,0.0,0.0,0.0,0.0,0.0,0.0,0.0,0.0,2.702,2.7282,2.7282,2.7828,2.8133,2.8002,2.7239,2.6911,2.726,2.6431,0.0,0.0,0.0,0.0,0.0,0.0,0.0,0.0,0.0,0.0,0.0,0.0,0.0,0.0,0.0,0.0,0.0,0.0,0.0,0.0,0.0,0.0,0.0,0.0,0.0,0.0,0.0,0.0,0.0,0.0,0.0,0.0,0.0,0.0,0.0,0.0,0.0,0.0,0.0,0.0,0.0,0.0,0.0,0.0,0.0,0.0,0.0,0.0,0.0,0.0,0.0,0.0,0.0,0.0,0.0,0.0,0.0,0.0,0.0,0.0,0.0,0.0,0.0,0.0,0.0,0.0,0.0,0.0,0.0,0.0,0.0,0.0,0.0,0.0,0.0,0.0,0.0,0.0,0.0,0.0,0.0,0.0,0.0,0.0,0.0,0.0,0.0,0.0,0.0,0.0,0.0,0.0,0.0,0.0,0.0,0.0,0.0,0.0,0.0,0.0,0.0,0.0,2.702,2.7282,2.7282,2.8179,2.8551,2.8023,2.7544,2.726,2.7282,2.6431,0.0,0.0,0.0,0.0,0.0,0.0,0.0,0.0,0.0,0.0,0.0,0.0,0.0,0.0,0.0,0.0,0.0,0.0,0.0,0.0,0.0,0.0,0.0,0.0,0.0,0.0,0.0,0.0,0.0,0.0,0.0,0.0,0.0,0.0,0.0,0.0,0.0,0.0,0.0,0.0,0.0,0.0,0.0,0.0,0.0,0.0,0.0,0.0,0.0,0.0,0.0,0.0,0.0,0.0,0.0,0.0,0.0,0.0,0.0,0.0,0.0,0.0,0.0,0.0,0.0,0.0,0.0,0.0,0.0,0.0,0.0,0.0,0.0,0.0,0.0,0.0,0.0,0.0,0.0,0.0,0.0,0.0,0.0,0.0,0.0,0.0,0.0,0.0,0.0,0.0,0.0,0.0,0.0,0.0,0.0,0.0,0.0,0.0,0.0,0.0,0.0,0.0,2.7457,2.7741,0.0,2.8376,2.8594,2.8045,2.7208,2.6662,2.6662,0.0,0.0,0.0,0.0,0.0,0.0,0.0,0.0,0.0,0.0,0.0,0.0,0.0,0.0,0.0,0.0,0.0,0.0,0.0,0.0,0.0,0.0,0.0,0.0,0.0,0.0,0.0,0.0,0.0,0.0,0.0,0.0,0.0,0.0,0.0,0.0,0.0,0.0,0.0,0.0,0.0,0.0,0.0,0.0,0.0,0.0,0.0,0.0,0.0,0.0,0.0,0.0,0.0,0.0,0.0,0.0,0.0,0.0,0.0,0.0,0.0,0.0,0.0,0.0,0.0,0.0,0.0,0.0,0.0,0.0,0.0,0.0,0.0,0.0,0.0,0.0,0.0,0.0,0.0,0.0,0.0,0.0,0.0,0.0,0.0,0.0,0.0,0.0,0.0,0.0,0.0,0.0,0.0,0.0,0.0,0.0,0.0,0.0,0.0,0.0,0.0,0.0,2.6885,2.7134,2.7428,0.0,2.8202,2.8267,2.7897,2.6911,2.6282,2.6259,0.0,0.0,0.0,0.0,0.0,0.0,0.0,0.0,0.0,0.0,0.0,0.0,0.0,0.0,0.0,0.0,0.0,0.0,0.0,0.0,0.0,0.0,0.0,0.0,0.0,0.0,0.0,0.0,0.0,0.0,0.0,0.0,0.0,0.0,0.0,0.0,0.0,0.0,0.0,0.0,0.0,0.0,0.0,0.0,0.0,0.0,0.0,0.0,0.0,0.0,0.0,0.0,0.0,0.0,0.0,0.0,0.0,0.0,0.0,0.0,0.0,0.0,0.0,0.0,0.0,0.0,0.0,0.0,0.0,0.0,0.0,0.0,0.0,0.0,0.0,0.0,0.0,0.0,0.0,0.0,0.0,0.0,0.0,0.0,0.0,0.0,0.0,0.0,0.0,0.0,0.0,0.0,0.0,0.0,0.0,0.0,0.0,0.0,0.0,0.0,0.0,0.0,2.6127,2.59,2.6185,2.7442,2.76,2.76,2.76,2.6785,2.6237,0.0,0.0,0.0,0.0,0.0,0.0,0.0,0.0,0.0,0.0,0.0,0.0,0.0,0.0,0.0,0.0,0.0,0.0,0.0,0.0,0.0,0.0,0.0,0.0,0.0,0.0,0.0,0.0,0.0,0.0,0.0,0.0,0.0,0.0,0.0,0.0,0.0,0.0,0.0,0.0,0.0,0.0,0.0,0.0,0.0,0.0,0.0,0.0,0.0,0.0,0.0,0.0,0.0,0.0,0.0,0.0,0.0,0.0,0.0,0.0,0.0,0.0,0.0,0.0,0.0,0.0,0.0,0.0,0.0,0.0,0.0,0.0,0.0,0.0,0.0,0.0,0.0,0.0,0.0,0.0,0.0,0.0,0.0,0.0,0.0,0.0,0.0,0.0,0.0,0.0,0.0,0.0,0.0,0.0,0.0,0.0,0.0,0.0,0.0,0.0,0.0,0.0,0.0,0.0,2.6236,2.6411,2.6771,2.6839,2.6839,2.6839,2.5558,2.4736,2.4713,0.0,0.0,0.0,0.0,0.0,0.0,0.0,0.0,0.0,0.0,0.0,0.0,0.0,0.0,0.0,0.0,0.0,0.0,0.0,0.0,0.0,0.0,0.0,0.0,0.0,0.0,0.0,0.0,0.0,0.0,0.0,0.0,0.0,0.0,0.0,0.0,0.0,0.0,0.0,0.0,0.0,0.0,0.0,0.0,0.0,0.0,0.0,0.0,0.0,0.0,0.0,0.0,0.0,0.0,0.0,0.0,0.0,0.0,0.0,0.0,0.0,0.0,0.0,0.0,0.0,0.0,0.0,0.0,0.0,0.0,0.0,0.0,0.0,0.0,0.0,0.0,0.0,0.0,0.0,0.0,0.0,0.0,0.0,0.0,0.0,0.0,0.0,0.0,0.0,0.0,0.0,0.0,0.0,0.0,0.0,0.0,0.0,0.0,0.0,0.0,0.0,0.0,2.5288,2.5464,2.5684,2.5998,2.6022,2.6022,2.6022,2.4832,2.4086,2.4044,0.0,0.0,0.0,0.0,0.0,0.0,0.0,0.0,0.0,0.0,0.0,0.0,0.0,0.0,0.0,0.0,0.0,0.0,0.0,0.0,0.0,0.0,0.0,0.0,0.0,0.0,0.0,0.0,0.0,0.0,0.0,0.0,0.0,0.0,0.0,0.0,0.0,0.0,0.0,0.0,0.0,0.0,0.0,0.0,0.0,0.0,0.0,0.0,0.0,0.0,0.0,0.0,0.0,0.0,0.0,0.0,0.0,0.0,0.0,0.0,0.0,0.0,0.0,0.0,0.0,0.0,0.0,0.0,0.0,0.0,0.0,0.0,0.0,0.0,0.0,0.0,0.0,0.0,0.0,0.0,0.0,0.0,0.0,0.0,0.0,0.0,0.0,0.0,0.0,0.0,0.0,0.0,0.0,0.0,0.0,0.0,0.0,0.0,0.0,0.0,0.0,0.0,2.4071,2.4122,2.4474,2.5123,2.5197,2.5197,2.5197,2.4488,2.4028,2.3962,0.0,0.0,0.0,0.0,0.0,0.0,0.0,0.0,0.0,0.0,0.0,0.0,0.0,0.0,0.0,0.0,0.0,0.0,0.0,0.0,0.0,0.0,0.0,0.0,0.0,0.0,0.0,0.0,0.0,0.0,0.0,0.0,0.0,0.0,0.0,0.0,0.0,0.0,0.0,0.0,0.0,0.0,0.0,0.0,0.0,0.0,0.0,0.0,0.0,0.0,0.0,0.0,0.0,0.0,0.0,0.0,0.0,0.0,0.0,0.0,2.3175,0.0,0.0,0.0,0.0,0.0,0.0,0.0,0.0,0.0,0.0,0.0,0.0,0.0,0.0,0.0,0.0,0.0,0.0,0.0,0.0,0.0,0.0,0.0,0.0,0.0,0.0,0.0,0.0,0.0,0.0,0.0,0.0,0.0,0.0,0.0,0.0,0.0,0.0,0.0,0.0,0.0,2.3951,2.4122,2.4251,2.4424,2.443,2.443,2.443,2.3936,2.3634,2.361,0.0,0.0,0.0,0.0,0.0,0.0,0.0,0.0,0.0,0.0,0.0,0.0,0.0,0.0,0.0,0.0,0.0,0.0,0.0,0.0,0.0,0.0,0.0,0.0,0.0,0.0,0.0,0.0,0.0,0.0,0.0,0.0,0.0,0.0,0.0,0.0,0.0,0.0,0.0,0.0,0.0,0.0,0.0,0.0,0.0,0.0,0.0,0.0,0.0,0.0,0.0,0.0,0.0,0.0,0.0,0.0,0.0,0.0,0.0,0.0,0.0,2.4091,0.0,0.0,0.0,0.0,0.0,0.0,0.0,0.0,0.0,0.0,0.0,0.0,0.0,0.0,0.0,0.0,0.0,0.0,0.0,0.0,0.0,0.0,0.0,0.0,0.0,0.0,0.0,0.0,0.0,0.0,0.0,0.0,0.0,0.0,0.0,0.0,0.0,0.0,0.0,0.0,2.4031,2.4331,2.4544,2.4771,2.479,2.4716,2.4489,2.4103,2.3724,2.3499,2.2931,0.0,0.0,0.0,0.0,0.0,0.0,0.0,0.0,0.0,0.0,0.0,0.0,0.0,0.0,0.0,0.0,0.0,0.0,0.0,0.0,0.0,0.0,0.0,0.0,0.0,0.0,0.0,0.0,0.0,0.0,0.0,0.0,0.0,0.0,0.0,0.0,0.0,0.0,0.0,0.0,0.0,0.0,0.0,0.0,0.0,0.0,0.0,0.0,0.0,0.0,0.0,0.0,0.0,0.0,2.7683,2.7995,2.7591,2.7628,2.794,2.6673,2.5976,2.5645,0.0,0.0,0.0,0.0,0.0,0.0,0.0,0.0,0.0,0.0,0.0,0.0,0.0,0.0,0.0,0.0,0.0,0.0,0.0,0.0,0.0,0.0,0.0,0.0,0.0,2.5664,2.5425,0.0,0.0,0.0,0.0,0.0,0.0,0.0,0.0,0.0,0.0,0.0,0.0,2.4184,2.4599,2.504,2.5352,2.5388,2.526,2.4929,2.4526,2.414,2.3761,2.3279,2.3004,0.0,0.0,0.0,0.0,0.0,0.0,0.0,0.0,0.0,0.0,0.0,0.0,0.0,0.0,0.0,0.0,0.0,0.0,0.0,0.0,0.0,0.0,0.0,0.0,0.0,0.0,0.0,0.0,0.0,0.0,0.0,0.0,2.4666,2.504,0.0,0.0,0.0,0.0,0.0,0.0,0.0,0.0,0.0,0.0,0.0,0.0,0.0,0.0,2.7911,2.8729,2.895,2.8619,2.8729,2.8803,2.884,2.8436,2.8443,2.8858,2.8986,0.0,2.6894,2.6086,0.0,0.0,0.0,0.0,0.0,0.0,0.0,0.0,0.0,0.0,0.0,0.0,0.0,0.0,0.0,0.0,0.0,0.0,0.0,0.0,0.0,0.0,2.6013,2.6784,2.671,2.6389,0.0,2.5737,2.4985,2.4177,0.0,0.0,0.0,0.0,0.0,0.0,0.0,0.0,2.4183,2.4863,2.5333,2.5388,2.5388,2.537,2.5315,2.4948,2.4709,2.4629,2.3871,2.3407,2.3407,2.3096,0.0,0.0,0.0,0.0,0.0,0.0,0.0,0.0,0.0,0.0,0.0,0.0,0.0,0.0,0.0,0.0,0.0,0.0,0.0,0.0,0.0,0.0,0.0,0.0,0.0,0.0,0.0,0.0,0.0,2.5076,2.5443,2.5407,2.559,2.5645,0.0,0.0,0.0,0.0,0.0,0.0,0.0,0.0,0.0,2.8938,2.9537,2.9923,3.0075,3.0644,3.0956,3.1011,3.1249,3.1488,3.1689,3.1286,3.1322,3.1671,3.1157,3.0662,3.0075,2.816,2.7077,2.66,0.0,0.0,0.0,0.0,0.0,2.5756,2.5994,0.0,0.0,0.0,0.0,0.0,0.0,0.0,0.0,0.0,0.0,0.0,0.0,0.0,0.0,2.7389,2.7408,2.7279,2.7279,2.7004,2.638,0.0,2.4691,2.4342,2.373,0.0,0.0,0.0,0.0,0.0,2.5139,2.5525,2.5902,2.6361,2.6215,2.5994,2.5756,2.537,2.504,2.4819,2.425,2.3877,2.3877,2.3712,2.362,0.0,0.0,0.0,0.0,0.0,0.0,0.0,0.0,0.0,0.0,0.0,0.0,0.0,0.0,0.0,0.0,0.0,0.0,0.0,0.0,0.0,0.0,0.0,0.0,0.0,0.0,0.0,0.0,2.5884,2.6306,2.5902,2.649,2.6673,0.0,0.0,0.0,0.0,0.0,0.0,2.9287,3.0369,3.1157,3.1543,3.2056,3.2368,3.2459,3.2881,3.323,3.3523,3.3709,3.4002,3.4403,3.3873,3.3818,3.4073,3.3175,3.2771,3.2551,2.9929,2.8498,2.7903,2.7077,2.6582,0.0,2.6655,2.6765,2.6802,2.6976,2.6875,2.66,2.649,0.0,2.5847,2.5737,0.0,0.0,0.0,0.0,2.6545,2.6967,0.0,2.761,2.8014,2.8105,2.8087,2.7977,2.7958,2.7518,0.0,2.548,2.5095,2.4581,0.0,0.0,0.0,0.0,2.5194,2.6178,2.6306,2.6527,2.7151,2.6857,2.649,2.6178,2.5774,2.5388,2.4985,2.4562,2.4312,2.4202,2.4202,2.4202,0.0,0.0,0.0,0.0,0.0,0.0,0.0,0.0,0.0,0.0,0.0,0.0,0.0,0.0,0.0,0.0,0.0,0.0,0.0,0.0,0.0,0.0,0.0,0.0,0.0,0.0,0.0,0.0,0.0,0.0,2.7169,2.8472,0.0,0.0,0.0,0.0,2.9427,3.0529,3.1359,3.1799,3.2591,3.3214,3.3651,3.4405,3.4991,3.5394,3.5797,3.5999,3.6017,3.5669,3.5705,3.6054,3.5247,3.4918,3.4936,3.4863,3.4203,3.2994,3.0974,3.0094,2.9965,2.9159,2.884,2.884,2.8858,2.8858,2.8803,2.8425,2.8297,2.8205,2.783,2.7444,2.7041,2.6673,2.682,0.0,0.0,2.7389,2.7793,2.8215,2.8315,2.8425,2.8828,2.895,2.881,2.8443,2.837,2.8003,0.0,2.6518,2.627,2.5462,0.0,0.0,2.5811,2.6233,2.6655,2.7096,2.7151,2.7151,2.7206,2.6857,2.6573,2.6554,2.6196,2.5792,2.5388,2.5003,2.4599,2.422,2.4202,2.4202,2.4202,2.4202,0.0,0.0,0.0,0.0,0.0,0.0,0.0,0.0,0.0,0.0,0.0,0.0,0.0,0.0,0.0,0.0,0.0,0.0,0.0,0.0,0.0,0.0,0.0,0.0,0.0,0.0,0.0,0.0,2.9776,3.1084,0.0,0.0,3.13,3.1634,3.1909,3.2551,3.3248,3.3892,3.468,3.5302,3.5705,3.6255,3.6603,3.675,3.6878,3.6951,3.6951,3.6842,3.6823,3.6933,3.6658,3.6402,3.6145,3.587,3.5357,3.466,3.3413,3.2148,3.0919,3.0369,2.9849,2.9427,2.9672,2.9629,2.9409,2.9507,2.9214,2.8693,2.8014,2.7701,2.7555,2.7426,2.7463,2.7591,2.7591,2.8069,2.8619,2.8766,2.8986,2.9225,2.9354,2.9207,2.8968,2.884,2.8803,2.8572,2.7893,2.7325,2.6894,2.6618,2.6343,2.6233,2.6361,2.6729,2.7132,2.7536,2.7591,2.7683,2.793,2.7389,2.7004,2.7004,2.638,2.5811,2.5425,2.5021,2.4617,2.422,2.4202,2.4202,2.4202,2.4202,2.4202,0.0,0.0,0.0,0.0,0.0,0.0,0.0,0.0,0.0,0.0,0.0,0.0,0.0,0.0,0.0,0.0,0.0,0.0,0.0,0.0,0.0,0.0,0.0,0.0,0.0,0.0,2.9316,3.1913,3.288,3.3335,3.3399,3.3206,3.3443,3.4351,3.4342,3.4864,3.6145,3.6713,3.7116,3.7391,3.7666,3.7794,3.7794,3.7794,3.7794,3.7794,3.7794,3.7794,3.7794,3.7794,3.7574,3.7171,3.6934,3.6439,3.5779,3.5229,3.4073,3.2536,3.1873,3.1194,3.0626,3.0901,3.0827,3.062,3.0589,3.0075,2.9305,2.8785,2.8619,2.8619,2.8619,2.8619,2.8619,2.8619,2.8975,2.9397,2.9397,2.958,2.9776,2.9629,2.9501,2.9324,2.9078,2.9115,2.9097,2.8663,2.8058,2.7573,2.7426,2.7187,2.7059,2.7178,2.7416,2.7757,2.816,2.8087,2.8105,2.837,2.7812,2.7353,2.7224,2.671,2.6104,2.5443,2.515,2.4764,2.422,2.433,2.4349,2.4202,2.4202,2.4275,2.4379,0.0,0.0,0.0,0.0,0.0,0.0,0.0,0.0,0.0,0.0,0.0,0.0,0.0,0.0,0.0,0.0,0.0,0.0,0.0,0.0,0.0,0.0,0.0,2.9659,2.9144,2.9694,3.3402,3.3734,3.4027,3.4976,3.4444,3.4821,3.6687,3.5844,3.6221,3.8377,3.8456,3.8496,3.8594,3.8496,3.8496,3.8576,3.8576,3.8576,3.8557,3.8597,3.8637,3.8618,3.8618,3.838,3.8016,3.8016,3.7338,3.6237,3.6237,3.576,3.4936,3.3727,3.301,3.2625,3.2625,3.2625,3.2478,3.1685,3.0882,3.0259,3.0222,3.0222,3.0222,3.0222,3.0222,3.0222,3.0222,3.0222,3.0241,3.0259,3.0241,3.0112,2.9758,2.9929,2.9984,2.9225,2.9354,2.9501,2.9115,2.8718,2.8315,2.7903,2.783,2.7977,2.8352,2.8407,0.0,2.8968,2.8645,2.8407,2.8407,2.8069,2.7646,2.7261,2.7206,2.6692,2.548,2.5388,2.504,2.4238,2.4562,2.4599,2.422,2.422,2.4397,2.4801,0.0,0.0,0.0,0.0,0.0,0.0,0.0,0.0,0.0,0.0,0.0,0.0,0.0,0.0,0.0,0.0,0.0,0.0,0.0,0.0,0.0,0.0,2.7342,3.0994,2.9952,3.0427,3.4796,3.4754,3.5073,3.6783,3.5452,3.5402,3.7574,3.5983,3.5259,3.6083,3.5895,3.6552,3.8184,3.6652,3.6459,3.7909,3.7826,3.7705,3.7508,3.8892,3.9355,3.904,3.904,3.8637,3.8016,3.8016,3.7668,3.7061,3.7061,3.675,3.6182,3.4973,3.4075,3.3486,3.3486,3.3101,3.2478,3.1685,3.1433,3.1414,3.0827,3.0626,3.0626,3.0626,3.0626,3.0626,3.0626,3.0859,3.1121,3.1433,3.1066,3.0662,3.0877,3.0534,3.013,2.991,2.9947,3.0002,2.9892,2.9782,2.947,2.8803,2.8674,2.8711,2.884,0.0,0.0,2.9005,2.8883,2.8858,2.8858,2.8491,2.8087,2.7665,2.7371,2.6692,0.0,2.5388,2.504,2.4238,2.4312,2.433,2.4202,2.4471,2.4691,0.0,0.0,0.0,0.0,0.0,0.0,0.0,0.0,0.0,0.0,0.0,0.0,0.0,0.0,0.0,0.0,0.0,0.0,0.0,0.0,0.0,0.0,2.6659,2.8427,3.1811,3.031,3.0624,3.5453,3.4981,3.5119,3.7293,3.5741,3.5418,3.7409,3.5445,3.4542,3.5394,3.5205,3.5631,3.6863,3.5734,3.5579,3.6635,3.6609,3.6451,3.6321,3.7896,3.8588,3.8499,3.8969,3.893,0.0,3.849,3.8199,3.7629,3.7629,3.7409,0.0,0.0,0.0,0.0,0.0,3.3798,3.3046,3.257,3.2331,3.2166,3.1708,3.1543,3.1543,3.1543,3.1543,3.1543,3.1543,3.1708,3.1946,3.2184,3.1909,3.1524,3.1428,3.1157,3.0827,3.0314,3.0332,3.0406,3.0241,0.0,0.0,2.958,2.9372,2.9207,2.9042,2.9005,2.9005,0.0,2.9005,2.9005,2.9005,2.8773,2.848,2.8087,2.7683,0.0,0.0,0.0,2.5425,2.4973,0.0,0.0,0.0,0.0,2.5131,0.0,0.0,0.0,0.0,2.5627,2.5609,0.0,0.0,0.0,0.0,0.0,0.0,0.0,0.0,0.0,0.0,0.0,0.0,0.0,0.0,0.0,0.0,2.796,2.9081,3.2174,3.0502,3.0722,3.5448,3.4486,3.4373,3.6729,3.5335,3.4904,3.6556,3.4542,3.3896,3.5354,0.0,0.0,0.0,0.0,3.5211,3.5209,3.5119,3.5087,3.5084,3.6283,3.7006,3.7344,3.8306,3.8865,3.8991,3.8995,3.866,3.8144,3.8144,3.7924,3.7482,3.6988,3.6347,3.5669,3.5266,3.4643,0.0,0.0,0.0,0.0,3.2808,3.2771,3.2735,3.2735,3.2698,3.2661,3.2661,3.2661,3.268,3.2716,3.2661,3.2423,3.1744,3.1836,3.1781,3.0699,3.0717,3.0827,3.0479,3.0369,3.0314,3.0277,2.991,2.9537,2.9133,2.9078,0.0,2.9023,2.9005,2.9005,2.9005,0.0,0.0,2.8425,2.8087,2.75,2.6646,2.6178,2.5921,2.5921,2.559,2.5572,2.5947,2.5627,2.5645,2.6021,2.6058,2.627,2.6673,2.6251,2.6251,0.0,0.0,0.0,0.0,0.0,0.0,0.0,0.0,0.0,0.0,0.0,0.0,0.0,0.0,0.0,2.7893,2.9128,3.0375,3.1682,3.1618,3.2269,3.4586,3.338,3.3197,3.5271,3.3703,3.3454,3.5566,3.3642,3.2634,3.3195,3.2926,0.0,3.5395,3.3724,3.3549,3.5103,3.4805,3.4492,3.4272,0.0,0.0,3.6103,3.6075,3.6699,3.7819,3.7591,3.8069,3.8966,3.8966,3.8728,3.827,3.7208,3.6695,3.6512,3.6127,3.5669,3.5229,3.4863,3.4661,3.446,3.4165,3.3835,3.3578,3.3578,3.3358,0.0,3.3067,3.3067,3.3175,3.3486,3.3083,3.2643,3.2826,3.268,3.2423,3.2184,3.1946,3.1744,3.1671,3.1377,3.1047,3.0736,3.0351,2.9947,2.9556,2.9482,2.9372,2.906,2.9005,2.9005,2.9005,2.9005,2.8858,2.8425,2.8315,2.7783,2.6664,2.5921,2.5517,2.5517,2.5443,2.5443,2.5517,2.5756,2.5902,2.6021,2.6325,2.6692,2.7077,2.6673,2.6545,0.0,0.0,0.0,0.0,0.0,0.0,0.0,0.0,0.0,0.0,0.0,2.478,0.0,0.0,2.7936,2.9303,3.0627,3.1657,3.2099,3.2625,3.3219,3.3712,3.3021,3.2976,3.4137,3.3334,3.3187,3.4151,3.3198,3.2545,3.2594,3.2594,3.3019,3.401,3.3068,3.2951,3.3835,3.3647,3.4003,3.4856,3.5027,3.621,3.8128,3.7359,3.7926,3.9568,3.9263,3.9371,3.9813,3.9369,3.8966,3.8545,3.794,3.7574,3.7336,3.6933,3.6439,3.5889,3.565,3.5321,3.4954,3.4788,3.4551,3.4386,3.4386,3.424,3.4093,3.4093,3.4093,3.4148,3.4331,3.3963,3.3505,3.3523,3.3211,3.2845,3.2643,3.2276,3.2001,3.2001,3.1671,3.1355,3.1121,3.0919,3.062,2.9984,2.9892,2.9745,2.9354,2.9299,2.9225,2.9042,2.9005,2.8931,2.87,2.8517,2.804,2.7261,2.682,2.6282,2.5634,2.5441,2.5038,2.4373,2.4384,2.4412,2.4412,2.4613,2.4797,2.4993,2.478,2.5592,0.0,0.0,0.0,0.0,0.0,0.0,0.0,0.0,2.3763,2.469,2.5398,2.6319,2.7843,2.8577,2.9476,3.0969,3.2152,3.2875,3.2929,3.3507,3.3788,3.3293,3.3187,3.3227,3.34,3.3467,3.3374,3.308,3.3066,3.2959,3.2781,3.2982,3.2959,3.2768,3.2995,3.2946,3.2768,3.2701,3.3539,3.5131,3.412,3.5496,3.885,3.781,3.8382,4.0235,4.0431,4.0529,4.0442,3.9575,3.9003,3.871,3.8637,3.8398,3.8089,3.7739,3.7153,3.6549,3.6476,3.5981,3.5339,3.5247,3.5174,3.5101,3.5101,3.5046,3.4991,3.4991,3.4991,3.4991,3.4991,3.4715,3.433,3.4,3.3633,3.3214,3.29,3.2514,3.2239,3.2239,3.1909,3.1616,3.1616,3.1616,3.1322,3.0442,3.0314,3.0167,2.9776,2.9647,2.9482,2.917,2.906,2.9005,2.9005,2.8627,2.8242,2.794,2.7602,2.69,2.5758,2.5207,2.4373,2.3225,2.2928,2.2809,2.2809,2.2809,2.284,2.293,2.293,2.4317,0.0,0.0,0.0,2.2846,2.3092,2.3661,0.0,0.0,2.5971,2.7068,2.7989,2.8775,2.9539,3.0768,3.1904,3.2612,3.3293,3.3828,3.4082,3.4202,3.4242,3.4175,3.3948,3.3681,3.344,3.3668,3.3708,3.3387,3.336,3.3347,3.332,3.3347,3.3347,3.332,3.3347,3.3347,3.332,3.3053,3.3067,3.3314,3.29,3.2844,3.303,3.2658,3.3354,3.4985,3.7396,3.9229,4.0442,3.9575,3.9168,3.9095,3.8747,3.8563,3.8527,3.849,3.8179,3.7759,3.7373,3.697,3.653,3.6163,3.5834,3.5522,3.5522,3.5266,3.4991,3.4991,3.4991,3.4991,3.4991,3.4715,3.4385,3.4348,3.4037,3.3725,3.3688,3.3358,3.3049,3.3049,3.2753,3.2459,3.2459,3.2459,3.2056,3.0901,3.0717,3.0589,3.0185,2.9831,2.9592,2.9537,2.9225,2.9005,2.9005,2.8627,2.837,2.8333,2.6882,2.5816,2.5364,2.4167,2.3298,2.2868,2.2809,2.2809,2.2809,2.2809,2.299,2.3323,2.3323,2.3336,2.2546,0.0,0.0,0.0,2.4356,2.5424,2.6667,2.7255,2.7829,2.9048,2.9953,3.0795,3.1557,3.2345,3.3053,0.0,3.4122,3.4376,3.4322,3.4469,3.4456,3.4108,3.4108,3.4082,3.3948,3.4055,3.4082,3.3948,3.3935,3.3868,3.3694,3.3694,3.3601,3.3414,3.3414,3.3414,3.3414,3.3293,3.381,3.5034,3.3524,3.3879,3.583,3.435,3.4449,3.5806,3.6768,3.7264,3.7428,3.671,3.6271,3.6034,3.5703,3.6172,3.7192,3.8225,3.8343,3.7998,3.7833,3.7464,3.7116,3.6933,3.6621,3.6292,3.6292,3.5999,3.5724,3.5724,3.5724,3.5724,3.5724,3.5412,3.5045,3.4789,3.4606,3.435,3.3908,3.3688,3.347,3.3232,3.2881,3.2588,3.2588,3.2588,3.2423,3.1909,3.1653,3.1267,3.0626,3.0387,3.0216,2.9965,2.9782,2.9599,2.9372,2.8847,2.8152,2.7337,2.6223,2.4956,2.3505,2.2713,2.19,2.096,2.0757,2.0664,2.0664,2.0664,2.0717,2.0913,2.0913,2.0815,2.3,0.0,0.0,2.4646,2.5932,2.7321,2.8112,2.8804,2.9646,3.0788,3.1577,3.2278,3.308,3.3534,3.3935,3.4376,3.4763,3.4897,3.4603,3.475,3.467,3.4082,3.4122,3.4229,3.4309,3.4322,3.4322,3.4322,3.4322,3.4229,3.4015,3.3935,3.3788,3.3547,3.3454,3.3414,3.3414,3.3414,3.415,3.5614,3.3931,3.4479,3.6972,3.5104,3.5047,3.6281,3.5969,3.5961,3.6199,3.567,3.543,3.5427,3.5121,3.5693,3.6855,3.8145,3.8417,3.8124,3.8053,3.7833,3.7537,3.7428,3.7189,3.697,3.697,3.675,3.6549,3.6549,3.6549,3.6512,3.6402,3.6091,3.565,3.5247,3.5083,3.4826,3.424,3.4147,3.4038,3.3745,3.3376,3.3101,3.3101,3.301,3.29,3.279,3.2533,3.2056,3.1231,3.0919,3.0644,3.0241,3.0204,3.0075,2.9794,2.887,2.785,2.684,2.5446,2.3897,2.2139,2.1407,2.0544,1.9488,1.9232,1.9104,1.9104,1.9104,1.9104,1.9104,1.9104,1.9104,0.0,0.0,2.4986,2.6774,2.807,2.9215,3.0421,3.0929,3.1396,3.234,3.2768,3.3133,3.3748,3.4387,3.4775,3.4802,3.5231,3.5498,3.5204,3.5177,3.4963,3.4376,3.4068,3.4015,0.0,3.4322,3.4322,3.4322,3.4322,3.4322,3.4309,3.4042,3.3881,3.3868,3.3574,3.3414,3.3414,3.3414,3.3414,3.3514,3.34,3.329,3.3143,3.2504,3.3062,3.456,3.4239,3.5799,3.8568,3.8177,3.8677,3.9654,3.9212,3.881,3.8521,3.856,3.86,3.8527,3.8163,3.8016,3.7924,3.7558,3.7373,3.7373,3.7373,3.7354,3.7354,3.7354,3.7354,3.7263,3.6878,3.6475,3.6091,3.5687,3.5266,3.4991,3.4954,3.4954,3.4954,3.4936,3.4642,3.4348,3.4348,3.4018,3.3651,3.3232,3.3159,3.2866,3.2074,3.1267,3.0644,3.0241,3.0204,3.0204,3.0185,2.8557,2.7516,2.7468,2.4393,2.2414,2.2011,2.0509,1.9475,1.9104,1.9104,1.9104,1.9104,1.9104,1.9104,1.9104,1.9104,1.9104,0.0,0.0,2.7001,2.839,2.9766,3.0996,3.1818,3.2332,3.2759,3.3053,3.304,3.3036,3.3049,3.337,3.3641,3.3841,3.4696,3.5311,3.5204,3.5364,3.5124,3.4148,3.4122,0.0,0.0,0.0,0.0,3.4857,3.4723,3.4616,3.4616,3.4336,3.4082,3.3895,3.3574,3.3414,3.3414,3.3414,3.3414,3.3414,3.3213,3.2973,3.2728,3.2278,3.2313,3.263,3.228,3.2633,3.3421,3.288,3.2673,3.2634,3.2303,3.2679,3.3397,3.3397,3.4172,3.547,3.7625,3.8398,3.838,3.8234,3.7995,3.7814,3.7814,3.7592,3.7391,3.7391,3.7391,3.7354,3.7226,3.6896,3.6493,3.6109,3.5907,3.5669,3.5101,3.5192,3.5302,3.5046,3.4881,3.4789,3.4789,3.4477,3.4073,3.367,3.3156,3.2716,3.2441,3.1052,2.9957,2.9641,2.846,2.7507,2.7068,2.6098,2.508,2.411,2.2628,2.1332,2.0371,1.9829,1.9415,1.9116,1.9104,1.9104,1.9104,1.9104,1.9201,1.9358,1.9189,1.9201,0.0,2.7161,2.8965,3.0306,3.1436,3.2452,3.3089,3.3467,3.3708,3.3601,3.3267,3.2942,3.2648,3.2581,3.2612,3.2893,3.3761,3.4482,3.4696,3.4883,3.4763,3.4122,3.4015,0.0,0.0,0.0,0.0,3.4977,3.4922,3.4869,3.4962,3.4643,3.4349,3.4055,3.3748,3.3534,3.3414,3.3414,3.3414,3.3414,3.3227,3.304,3.2888,3.2438,3.2158,3.2005,3.1557,3.1583,3.1905,3.1408,3.1243,3.1208,3.0981,3.1259,3.1851,3.1851,3.252,3.3724,3.5971,3.6752,3.6832,3.749,3.751,3.7414,3.804,3.8014,3.7812,3.7812,3.7812,3.7794,3.7629,3.7409,3.7116,3.6695,3.6531,3.6255,3.5742,3.5724,3.576,3.5467,3.5302,3.5012,3.4467,3.3444,3.2558,3.2173,3.1705,3.1543,3.193,3.065,2.9427,2.8686,2.7285,2.6242,2.5783,2.473,2.3666,2.2724,2.1612,2.063,1.9826,1.9697,1.9564,1.9394,1.9394,1.9394,1.9394,1.9394,1.9479,1.9648,1.9479,1.9491,2.7455,2.9138,3.0868,3.23,3.304,3.3601,3.4175,3.4295,3.4202,3.3868,3.3307,3.2822,0.0,0.0,3.1764,3.2024,3.2652,3.3307,3.3908,3.4015,3.4108,0.0,0.0,0.0,0.0,0.0,0.0,3.4775,0.0,3.487,3.5177,3.4976,3.4629,3.4349,3.4055,3.3761,3.344,3.3414,3.3414,3.3414,3.3414,3.34,3.3374,3.2848,3.2581,3.2541,3.1965,3.2512,3.3833,3.3574,3.4082,3.4996,3.4725,3.416,3.3531,3.3531,3.3352,3.3151,3.3151,3.3233,3.3683,3.5349,3.5873,3.6155,3.7827,3.8322,3.8322,3.8322,3.8322,3.8271,3.787,3.7743,3.7634,3.7269,3.6869,3.654,3.6559,3.625,3.5959,3.594,3.5631,3.4881,3.3332,3.1195,2.9592,2.9158,2.9131,2.955,3.0611,3.0016,2.8909,2.7424,2.6614,2.6177,2.6167,2.4317,2.3174,2.3174,2.1382,2.0325,2.0313,2.0071,1.9905,1.9881,1.9881,1.9881,1.9881,1.9881,1.9893,1.9905,1.9893,1.9893,2.9486,3.1015,3.2286,3.333,3.3814,3.4068,3.4015,3.4002,3.3721,3.2759,3.1917,3.1129,0.0,0.0,0.0,3.1704,3.3387,0.0,3.5431,3.5698,0.0,3.5285,0.0,3.4843,3.4269,3.4336,0.0,0.0,3.4683,3.4656,3.5164,3.4976,3.4788,3.4708,3.4362,3.4068,3.3774,3.3534,3.3414,3.3414,3.3414,3.3293,3.308,3.2755,3.2474,3.2198,3.1824,3.1651,3.1628,3.1546,3.1298,3.0965,3.0895,3.0475,2.9943,2.9943,2.9776,2.9537,2.9537,3.123,3.3479,3.3928,3.4034,3.4172,3.4579,3.4741,3.4741,3.4741,3.4741,3.4684,3.4585,3.4371,3.41,3.4017,3.3664,3.3319,3.3133,3.2962,3.2813,3.2571,3.2456,3.208,3.1049,3.0391,2.9738,2.8991,2.8869,2.8866,2.8766,2.7553,2.638,2.5491,2.3991,2.2952,2.2782,2.2077,2.168,2.168,2.0992,2.0519,2.0313,2.0241,2.0086,1.9893,1.9881,1.9881,1.9881,1.9881,1.9989,2.0204,1.9977,2.0023,3.1142,3.2474,3.348,3.4108,3.4389,3.4336,3.3641,3.3601,3.324,3.1664,3.0849,0.0,0.0,0.0,0.0,0.0,0.0,0.0,3.5378,3.5859,3.6139,0.0,3.5979,0.0,3.5137,3.5124,3.5204,0.0,3.4963,3.4897,3.5364,3.5231,3.503,3.4829,3.4603,3.4309,3.3895,3.3708,3.3547,3.3414,3.3414,3.332,3.316,3.2781,3.25,3.2326,0.0,3.1537,3.1156,3.0902,3.0501,3.0034,2.978,2.9392,2.8991,2.8991,2.8804,2.8524,2.8433,2.9677,3.1381,3.2061,3.2263,3.2412,3.3151,3.3397,3.3397,3.3397,3.3397,3.3397,3.3397,3.3254,3.307,3.307,3.276,3.2403,3.2253,3.2079,3.1779,3.1291,3.0508,2.9737,2.9133,2.8293,2.752,2.6839,2.6776,2.6565,2.594,2.5728,2.522,2.4161,2.2755,2.1849,2.1704,2.1438,2.1281,2.1281,2.1135,2.099,2.0845,2.0833,2.0773,2.0628,2.0581,2.0581,2.0581,2.0581,2.0628,2.0652,2.0628,2.0628,3.2621,3.3587,3.4442,3.475,3.4815,3.4454,3.329,3.3066,3.255,3.0694,0.0,2.9579,2.8975,2.9232,2.9757,3.0467,0.0,3.3507,3.4804,3.5431,3.6072,3.6952,3.662,3.6233,3.6193,3.5925,3.5752,3.5752,3.5511,3.5444,3.5565,3.5591,3.5338,3.4882,3.4802,3.4456,3.3948,3.3868,3.3681,3.3414,3.3414,3.3414,3.3387,3.2862,3.2594,3.2567,0.0,0.0,3.157,3.1062,3.0808,3.0688,3.0167,2.978,2.9486,2.9446,2.9259,2.8948,2.8711,2.8604,2.8807,3.0027,3.0455,3.0746,3.2247,3.27,3.27,3.27,3.27,3.27,3.27,3.2659,3.2618,3.2618,3.2303,3.2006,3.1959,3.1641,3.1183,3.0536,2.9041,2.7726,2.7307,2.5819,2.4552,2.412,2.4104,2.3915,2.3269,2.4417,2.4688,2.329,2.2471,2.1994,2.1958,2.1716,2.1571,2.1571,2.1534,2.151,2.151,2.151,2.151,2.151,2.151,2.151,2.151,2.151,2.1389,2.116,2.1401,2.1377,3.4052,3.4588,3.4763,3.5044,3.475,3.4148,3.32,3.2265,0.0,0.0,0.0,2.8724,2.8406,2.8995,2.9913,3.1269,3.2519,3.4057,0.0,0.0,3.6992,0.0,0.0,0.0,0.0,0.0,0.0,0.0,0.0,0.0,3.5591,3.5404,3.5231,3.5124,3.4656,3.4349,3.4242,3.3748,3.3467,3.3414,3.3414,3.3414,3.3387,3.2862,3.2594,3.2567,0.0,0.0,3.1289,3.1196,3.0862,3.0467,3.0373,2.9998,2.9459,2.9205,2.9041,2.8948,2.8711,2.8604,2.8593,2.8653,2.8642,2.8726,2.9006,2.909,2.909,2.909,2.909,2.909,2.909,2.8796,2.8516,2.8516,2.8167,2.7766,2.7569,2.7249,2.6942,2.6808,2.6328,2.5863,2.546,2.4912,2.4378,2.3927,2.3851,2.3827,2.3707,2.3807,2.3641,2.2859,2.2648,2.2465,2.2248,2.1994,2.1837,2.1837,2.1631,2.151,2.151,2.151,2.151,2.151,2.151,2.151,2.151,2.151,2.1486,2.145,2.1498,2.1486,3.4574,3.4977,3.5204,3.5204,3.475,3.3921,3.2412,0.0,0.0,0.0,0.0,2.8136,2.8179,2.8751,0.0,3.0595,3.1877,3.3404,0.0,0.0,0.0,0.0,0.0,0.0,0.0,0.0,0.0,0.0,0.0,0.0,3.5872,3.5431,3.5191,3.5191,3.4776,3.4469,3.4322,3.3881,3.3574,3.3414,3.3414,3.3414,3.34,3.2973,3.2822,3.2781,0.0,0.0,3.165,3.1356,3.1062,3.0782,3.052,3.0239,2.9931,2.9432,2.9366,2.9432,2.8948,2.8938,2.8991,2.8524,2.8312,2.8179,2.8179,2.8179,2.8136,2.7897,2.7854,2.777,2.7545,2.7304,2.7135,2.7135,2.6965,2.6758,2.6618,2.6376,2.609,2.5841,2.5573,2.5263,2.4813,2.4621,2.4405,2.4069,2.4005,2.3957,2.3824,2.373,2.3553,2.3092,2.2985,2.284,2.2719,2.2465,2.232,2.232,2.2066,2.1921,2.1921,2.1921,2.1921,2.1921,2.1921,2.1921,2.1921,2.1921,2.1849,2.1716,2.1861,2.1849,3.4736,3.5191,3.5498,3.5324,3.4696,3.3627,3.1757,3.0448,0.0,0.0,2.7696,2.7709,2.8125,2.8524,2.9041,0.0,3.0942,3.2412,3.4324,0.0,0.0,0.0,0.0,0.0,0.0,0.0,0.0,0.0,0.0,0.0,3.5885,3.5444,3.5191,3.5191,3.4857,3.4563,3.4322,3.3961,3.3654,3.3414,3.3414,3.3414,3.34,3.3106,3.2973,3.2946,0.0,0.0,0.0,3.161,3.1343,3.1183,3.0728,3.0469,3.0244,2.9659,2.953,2.9599,2.8908,2.8885,2.9035,2.8462,2.8303,2.8272,2.8205,2.815,2.7981,2.7614,2.7431,2.7262,2.6923,2.6741,2.6613,2.6541,2.6498,2.6498,2.6498,2.6322,2.6087,2.5709,2.5403,2.5136,2.4763,2.462,2.4511,2.4306,2.4282,2.421,2.4005,2.3969,2.3872,2.3607,2.3321,2.3143,2.3082,2.2889,2.278,2.278,2.2574,2.2465,2.2465,2.2417,2.2381,2.2381,2.2332,2.2296,2.2296,2.2296,2.2199,2.1994,2.2199,2.2187,3.4937,3.5191,3.5297,3.5538,3.4536,3.3173,3.1917,0.0,0.0,2.8232,2.7724,2.7523,2.8085,2.8232,2.8634,2.9726,3.0261,3.1423,3.4002,3.5084,0.0,0.0,0.0,0.0,0.0,0.0,0.0,0.0,0.0,0.0,0.0,3.5231,3.5191,3.5191,3.4656,3.4349,3.4322,3.3748,3.344,3.3414,3.3414,3.3414,3.34,3.3106,3.2973,3.2959,0.0,0.0,0.0,3.2038,3.1704,3.1223,3.1169,3.0657,2.9951,2.9455,2.9145,2.8865,2.8035,2.7766,2.7741,2.7434,2.7878,2.8511,2.8272,2.7897,2.7571,2.7516,2.7177,2.6825,2.6796,2.6486,2.6061,2.5647,2.5519,2.5519,2.5519,2.5507,2.5483,2.544,2.5234,2.5011,2.4969,2.4752,2.4571,2.4547,2.4547,2.4535,2.4511,2.4511,2.4415,2.415,2.368,2.3309,2.3106,2.3097,2.3046,2.3046,2.3022,2.3048,2.3048,2.278,2.2659,2.2659,2.2417,2.2296,2.2296,2.2296,2.2284,2.226,2.2284,2.2284,3.4817,3.5458,3.5712,3.5645,3.4509,3.3106,3.1979,0.0,2.8524,2.8245,2.7857,2.7697,2.8112,2.8031,2.8125,2.8781,2.8995,2.9744,3.1664,3.2692,3.4055,0.0,0.0,0.0,0.0,0.0,0.0,0.0,0.0,0.0,0.0,3.5191,3.5191,3.5191,3.4629,3.4322,3.4322,3.3721,3.3414,3.3414,3.3414,3.3414,3.3414,3.3293,3.324,3.3227,0.0,0.0,0.0,3.2171,3.1864,3.1429,3.0974,3.0608,3.0179,2.9105,2.8776,2.8792,2.8074,2.7877,2.7839,2.7546,2.7602,2.7723,2.7425,2.722,2.7008,2.6753,2.6528,2.6316,2.603,2.5817,2.5647,2.5433,2.5391,2.5391,2.5391,2.5391,2.5391,2.5391,2.5306,2.5234,2.5234,2.515,2.5017,2.4861,2.4836,2.4776,2.4607,2.4583,2.4547,2.4439,2.4101,2.3776,2.355,2.3381,2.3285,2.3285,2.3179,2.3082,2.3082,2.3024,2.2925,2.2925,2.2671,2.2538,2.2538,2.2538,2.2538,2.2538,2.2695,2.2768,3.4215,3.5177,3.5658,3.5538,3.4389,3.2973,0.0,0.0,2.8524,2.8245,2.7951,2.7789,2.8125,2.7938,2.7789,2.8138,2.8179,2.8674,3.0079,3.0982,3.2332,0.0,0.0,0.0,0.0,0.0,0.0,0.0,0.0,0.0,0.0,3.5244,3.5151,3.507,3.4576,3.4282,3.4189,3.3668,3.3414,3.3414,3.3414,3.3414,3.3414,3.3414,3.3414,0.0,0.0,0.0,0.0,3.2213,3.1824,3.1485,3.0721,3.0286,3.0054,2.8959,2.8649,2.8586,2.7948,2.7685,2.7604,2.7184,2.6872,2.6621,2.6421,2.6498,2.6528,2.6188,2.6018,2.5805,2.5476,2.5391,2.5391,2.5391,2.5391,2.5391,2.5391,2.5391,2.5391,2.5391,2.5391,2.5391,2.5391,2.5391,2.5331,2.515,2.5114,2.5041,2.4849,2.4824,2.48,2.4716,2.4547,2.4294,2.3945,2.3824,2.3692,2.3535,2.3454,2.3396,2.3324,2.3239,2.3203,2.3203,2.2937,2.2804,2.2804,2.2804,2.2804,2.2816,2.2997,2.3082,3.3003,3.4108,3.4895,3.5137,3.4082,3.2679,0.0,0.0,2.8524,2.8245,2.7951,2.7789,2.8125,2.7938,2.7789,2.8138,2.8179,2.8607,2.9753,3.0675,0.0,0.0,0.0,0.0,0.0,0.0,0.0,0.0,0.0,0.0,0.0,3.5351,3.507,3.4829,3.4469,3.4189,3.3895,3.3574,3.3414,3.3414,3.3414,3.3414,3.3414,3.3414,0.0,0.0,0.0,0.0,0.0,3.2126,3.1594,3.1211,3.0434,2.9841,2.9386,2.9113,2.8671,2.8089,2.7304,2.6858,2.6556,2.6013,2.5651,2.5403,2.5433,2.5732,2.6103,2.6103,2.5763,2.5391,2.5391,2.5391,2.5391,2.5391,2.5391,2.5391,2.5391,2.5391,2.5391,2.5391,2.5391,2.5391,2.5391,2.5391,2.5391,2.5391,2.5391,2.5391,2.5391,2.5379,2.5282,2.5029,2.4993,2.4776,2.4234,2.4427,2.4354,2.3836,2.4041,2.4065,2.3812,2.3547,2.3414,2.3414,2.3215,2.3121,2.3121,2.3121,2.3121,2.3121,2.3082,2.3082,3.1717,3.2585,3.2973,3.3053,3.2425,3.153,3.0555,0.0,2.8524,2.8245,2.7951,2.7789,2.8125,2.8112,2.8152,2.8417,2.8457,2.8591,0.0,0.0,0.0,0.0,0.0,0.0,0.0,0.0,0.0,0.0,0.0,0.0,0.0,3.5244,3.5151,3.5057,3.4776,3.4576,3.4534,3.3988,3.3734,3.3734,3.3507,3.3414,3.3414,3.3414,0.0,0.0,0.0,0.0,0.0,3.1302,3.0776,3.0399,2.9831,2.9407,2.9066,2.8417,2.7964,2.7582,2.6933,2.6536,2.6246,2.5897,2.5608,2.5391,2.5391,2.5519,2.5604,2.5604,2.5519,2.5391,2.5391,2.5391,2.5391,2.5391,2.5391,2.5391,2.5391,2.5391,2.5391,2.5391,2.5391,2.5391,2.5391,2.5391,2.5391,2.5391,2.5391,2.5391,2.5391,2.5391,2.5367,2.5282,2.527,2.5053,2.4511,2.4535,2.4511,2.4342,2.4415,2.4342,2.4077,2.3993,2.386,2.368,2.3414,2.3321,2.3321,2.3321,2.3418,2.3587,2.3587,2.3587,0.0,3.1209,3.177,3.177,3.133,0.0,0.0,2.9152,2.8524,2.8245,2.8031,2.7965,2.8152,2.8098,2.8112,2.8377,2.8337,2.8377,0.0,0.0,0.0,0.0,0.0,0.0,0.0,0.0,0.0,0.0,0.0,0.0,0.0,0.0,3.5191,3.5191,3.491,3.4762,3.4603,3.4122,3.378,3.3563,3.3259,3.3013,3.2812,0.0,0.0,0.0,0.0,0.0,0.0,3.0791,3.0257,2.9944,2.9317,2.8928,2.8623,2.8123,2.7787,2.751,2.7042,2.6704,2.6415,2.6054,2.5692,2.5391,2.5391,2.5391,2.5391,2.5391,2.5391,2.5391,2.5391,2.5391,2.5391,2.5391,2.5391,2.5391,2.5391,2.5391,2.5391,2.5391,2.5391,2.5391,2.5391,2.5391,2.5391,2.5391,2.5391,2.5391,2.5391,2.5391,2.5391,2.5391,2.5391,2.5258,2.4921,2.4885,2.48,2.4595,2.468,2.462,2.4354,2.4342,2.4222,2.3957,2.3788,2.3655,2.3559,2.3655,2.374,2.3812,2.3909,2.3897,0.0,0.0,0.0,0.0,0.0,0.0,0.0,2.8938,0.0,2.8219,2.8138,2.8138,2.8179,2.7965,2.7829,2.8165,2.7991,0.0,0.0,2.9655,0.0,0.0,0.0,0.0,0.0,0.0,0.0,0.0,0.0,0.0,0.0,0.0,3.5191,3.5138,3.4884,3.4604,3.4246,3.3991,3.3563,3.3042,3.2704,3.2259,3.1819,0.0,0.0,0.0,0.0,0.0,0.0,3.0465,2.9946,2.9638,2.891,2.8451,2.8198,2.8198,2.8041,2.7775,2.7486,2.7186,2.6897,2.6355,2.5849,2.5451,2.5427,2.5415,2.5391,2.5391,2.5391,2.5391,2.5391,2.5391,2.5391,2.5391,2.5391,2.5391,2.5391,2.5391,2.5391,2.5391,2.5391,2.5391,2.5391,2.5391,2.5391,2.5391,2.5391,2.5391,2.5391,2.5391,2.5391,2.5391,2.5391,2.5391,2.5391,2.5391,2.5186,2.468,2.4885,2.4909,2.4632,2.462,2.4487,2.4222,2.4222,2.4101,2.386,2.4101,2.4101,2.386,2.4113,2.4077,0.0,0.0,0.0,0.0,0.0,0.0,0.0,2.8016,2.7896,2.7816,2.767,2.7657,2.8098,2.8125,2.8179,2.8444,2.8444,0.0,0.0,0.0,0.0,0.0,0.0,0.0,0.0,0.0,0.0,0.0,0.0,0.0,0.0,0.0,3.498,3.4557,3.4439,3.4268,3.398,3.3521,3.3004,3.2481,3.2149,3.1907,3.1819,0.0,0.0,0.0,0.0,0.0,3.0416,2.9604,2.914,2.8849,2.8644,2.8451,2.8198,2.8198,2.8041,2.7751,2.728,2.7042,2.6897,2.6355,2.609,2.5957,2.5752,2.556,2.5391,2.5391,2.5391,2.5391,2.5391,2.5391,2.5391,2.5391,2.5391,2.5391,2.5391,2.5391,2.5391,2.5391,2.5391,2.5391,2.5391,2.5391,2.5391,2.5391,2.5391,2.5391,2.5391,2.5391,2.5391,2.5391,2.5391,2.5391,2.5391,2.5391,2.5343,2.521,2.527,2.5186,2.4921,2.4909,2.4776,2.4499,2.4499,2.4463,2.4403,2.4463,2.4463,2.4403,2.4463,2.4354,0.0,0.0,0.0,0.0,2.7764,2.7938,2.7736,2.7589,2.7495,2.7495,2.7416,2.7443,2.7898,2.7978,2.8085,2.8393,2.8511,0.0,0.0,0.0,0.0,0.0,0.0,0.0,0.0,0.0,0.0,0.0,0.0,0.0,0.0,0.0,3.4663,3.4293,3.3822,3.3562,3.3549,3.3111,3.2571,3.1932,3.1592,3.1315,3.1062,0.0,0.0,0.0,0.0,0.0,2.9787,2.9346,2.897,2.862,2.862,2.8451,2.8198,2.8198,2.8041,2.7751,2.7353,2.7006,2.6753,2.6463,2.6198,2.5969,2.5825,2.5608,2.5391,2.5391,2.5391,2.5391,2.5391,2.5391,2.5391,2.5391,2.5391,2.5391,2.5391,2.5391,2.5391,2.5391,2.5391,2.5391,2.5391,2.5391,2.5391,2.5391,2.5391,2.5391,2.5391,2.5391,2.5391,2.5391,2.5391,2.5391,2.5391,2.5391,2.5391,2.5391,2.5391,2.5331,2.5186,2.5186,2.5053,2.4776,2.4644,2.4583,2.4583,2.4716,2.4716,2.4583,2.4716,2.4571,0.0,2.6158,2.7175,2.7175,2.7388,2.7615,2.7575,2.7415,2.7296,2.7242,2.7309,2.7456,2.7709,2.7802,0.0,0.0,0.0,0.0,0.0,0.0,0.0,0.0,0.0,0.0,0.0,0.0,0.0,0.0,0.0,0.0,0.0,0.0,0.0,3.395,3.3082,3.2579,3.2729,3.2503,3.2045,3.1307,3.1022,3.0619,3.0214,3.0214,0.0,0.0,0.0,0.0,2.9405,2.9405,2.9091,2.862,2.862,2.8475,2.827,2.827,2.8125,2.7896,2.7582,2.709,2.6656,2.6656,2.6319,2.5897,2.5861,2.5656,2.5451,2.5403,2.5391,2.5403,2.5439,2.5427,2.5391,2.5391,2.5391,2.5403,2.5451,2.5451,2.5451,2.5451,2.5487,2.5499,2.5463,2.5451,2.5451,2.5451,2.5415,2.5391,2.5391,2.5391,2.5391,2.5391,2.5391,2.5391,2.5391,2.5391,2.5391,2.5391,2.5391,2.5391,2.5391,2.5391,2.5294,2.5065,2.4836,2.4704,2.4704,2.4945,2.4945,2.4716,2.4957,2.48,2.5237,2.5972,2.652,2.652,2.6934,2.7309,2.7014,2.7121,2.7242,2.6947,2.7281,2.7722,2.8058,2.8297,2.8564,0.0,0.0,0.0,0.0,0.0,0.0,0.0,0.0,0.0,0.0,0.0,0.0,0.0,0.0,0.0,0.0,0.0,0.0,3.2551,3.2135,3.1627,3.0978,3.117,3.0971,3.0376,3.0339,3.0264,3.0214,3.0214,3.0214,0.0,0.0,2.9912,2.9405,2.9405,2.9091,2.862,2.862,2.8548,2.856,2.856,2.8536,2.8427,2.792,2.7413,2.6921,2.6921,2.6716,2.6427,2.623,2.5933,2.568,2.5451,2.5391,2.5451,2.5668,2.556,2.5391,2.5391,2.5391,2.5451,2.568,2.5728,2.5728,2.5728,2.5909,2.6025,2.5764,2.5728,2.5728,2.5728,2.5535,2.5391,2.5391,2.5391,2.5391,2.5391,2.5391,2.5391,2.5391,2.5391,2.5391,2.5391,2.5391,2.5391,2.5391,2.5391,2.5379,2.5331,2.5294,2.527,2.527,2.5318,2.5318,2.527,2.5318,2.5174,2.4893,2.5705,2.636,2.6238,2.6881,2.7428,2.7134,2.7202,2.7269,2.7094,2.7281,2.7643,2.8098,0.0,2.9192,3.0287,0.0,0.0,0.0,0.0,0.0,0.0,0.0,0.0,0.0,0.0,0.0,0.0,0.0,0.0,0.0,0.0,0.0,0.0,3.1432,3.0978,3.0612,3.0601,3.0416,3.0214,3.0214,3.0214,3.0214,3.0214,3.0214,3.0214,0.0,2.9984,2.9598,2.9465,2.9175,2.8825,2.8681,2.862,2.862,2.862,2.8524,2.8343,2.7944,2.7558,2.7174,2.703,2.6813,2.6572,2.6439,2.621,2.6005,2.6029,2.5837,2.5632,2.5752,2.5801,2.5813,2.5813,2.5813,2.5849,2.5969,2.6037,2.6037,2.6037,2.6134,2.6182,2.6061,2.6037,2.5989,2.5813,2.568,2.556,2.5415,2.5391,2.5391,2.5391,2.5391,2.5391,2.5391,2.5391,2.5391,2.5391,2.5391,2.5391,2.5391,2.5391,2.5391,2.5391,2.5391,2.5177,2.4707,2.5177,2.5177,2.4707,2.5177,2.5258,2.4746,2.5598,2.6333,2.6145,2.6881,2.7575,2.7536,2.7563,2.7643,2.771,2.7884,2.8112,0.0,2.8951,0.0,3.1517,0.0,0.0,0.0,0.0,0.0,0.0,0.0,0.0,0.0,0.0,0.0,0.0,0.0,0.0,0.0,0.0,0.0,0.0,3.0854,3.0515,3.0515,3.0322,3.0214,3.0214,3.0214,3.0214,3.0214,3.0214,3.0214,3.0214,3.0214,3.002,2.9682,2.9489,2.9212,2.8898,2.8705,2.862,2.862,2.862,2.8439,2.8174,2.7968,2.7727,2.7473,2.7162,2.6897,2.668,2.662,2.6403,2.6278,2.6512,2.6343,2.6054,2.5993,2.6078,2.6218,2.6218,2.6218,2.6242,2.6258,2.627,2.627,2.627,2.6319,2.6387,2.6283,2.627,2.621,2.6005,2.5921,2.5801,2.5608,2.5572,2.556,2.5487,2.5487,2.5377,2.5146,2.478,2.4469,2.4309,2.478,2.5006,2.4792,2.4749,2.4749,2.4749,2.4438,2.3955,2.3279,2.36,2.3697,2.3623,2.4255,2.476,2.5224,2.5905,2.6386,2.636,2.6827,2.7469,2.8005,2.8339,2.8591,2.8815,0.0,0.0,0.0,2.99,3.0969,0.0,0.0,0.0,0.0,0.0,0.0,0.0,0.0,0.0,0.0,0.0,0.0,0.0,0.0,0.0,0.0,0.0,0.0,0.0,0.0,3.025,3.025,3.0226,3.0214,3.0214,3.0214,3.0214,3.0214,3.0214,3.0214,3.0214,3.0214,2.9912,2.9429,2.9417,2.9103,2.8644,2.8632,2.862,2.862,2.862,2.8439,2.8198,2.8186,2.8005,2.7739,2.7486,2.7174,2.6909,2.6668,2.6403,2.6278,2.6512,2.674,2.6837,2.6596,2.6355,2.6218,2.6218,2.6218,2.6291,2.6512,2.656,2.656,2.656,2.6765,2.6849,2.6608,2.656,2.656,2.6536,2.6319,2.6138,2.6114,2.6114,2.6073,2.5776,2.5752,2.5354,2.4301,2.2944,2.1813,2.1002,2.3009,2.3806,2.2945,2.2902,2.2902,2.2902,2.1618,2.0905,2.0872,1.9541,1.9975,2.2062,2.2105,2.332,2.4839,2.5665,2.6386,2.6386,2.6974,2.7696,2.8297,2.8804,2.9285,2.9766,3.0274,0.0,0.0,0.0,0.0,0.0,0.0,0.0,0.0,0.0,0.0,0.0,0.0,0.0,0.0,0.0,0.0,0.0,0.0,0.0,0.0,0.0,0.0,0.0,0.0,3.0214,3.0214,3.0214,3.0214,3.0214,3.0214,3.0214,3.0214,3.0033,3.0045,3.0202,2.9864,2.9682,2.9622,2.9296,2.9043,2.885,2.8693,2.862,2.862,2.862,2.856,2.8439,2.827,2.8029,2.7775,2.751,2.7198,2.6969,2.6873,2.6765,2.6704,2.6801,2.703,2.7256,2.7102,2.7006,2.6966,2.6966,2.6846,2.6749,2.6813,2.6837,2.6837,2.6837,2.6921,2.6957,2.6849,2.6837,2.6789,2.662,2.6499,2.6367,2.6242,2.5689,2.5231,2.503,2.3532,2.2394,2.1964,2.0592,1.9367,1.8462,1.9768,2.0419,2.0028,2.0028,2.0028,2.0028,1.9507,1.8985,1.8427,1.8409,1.8584,1.8941,1.9454,2.0192,2.4626,2.5424,2.6253,2.6253,2.7054,2.807,2.8965,2.9539,3.014,3.1055,3.1049,0.0,0.0,0.0,0.0,0.0,0.0,0.0,0.0,0.0,0.0,0.0,0.0,0.0,0.0,0.0,0.0,0.0,0.0,0.0,0.0,0.0,0.0,0.0,0.0,0.0,3.0214,3.0214,3.0214,3.0214,3.0129,3.0129,3.0202,2.9924,2.99,3.0057,2.9598,2.9465,2.9526,2.9163,2.897,2.8874,2.8644,2.862,2.8608,2.8524,2.8548,2.8572,2.821,2.8017,2.7872,2.7534,2.7304,2.709,2.7006,2.6981,2.7006,2.709,2.7341,2.757,2.7642,2.7606,2.7546,2.7546,2.7413,2.7235,2.7235,2.7162,2.7126,2.7256,2.7162,2.7114,2.7114,2.7114,2.6778,2.5738,2.5556,2.5217,2.4218,2.3569,2.307,2.2848,2.1086,1.9871,1.9565,1.8182,1.6968,1.6063,1.6143,1.6617,1.7493,1.7536,1.7536,1.7536,1.7099,1.6581,1.6019,1.6143,1.6311,1.645,1.7055,1.7703,2.4679,2.5277,2.5998,2.5998,2.7108,2.858,3.0079,3.0641,3.1209,3.2679,3.2064,3.1517,3.2447,0.0,0.0,0.0,0.0,0.0,0.0,0.0,0.0,0.0,0.0,0.0,0.0,0.0,0.0,0.0,0.0,0.0,0.0,0.0,0.0,0.0,0.0,0.0,3.0214,3.0214,3.0214,3.0214,2.9924,2.9936,3.0202,2.9924,2.9791,2.9779,2.9513,2.9248,2.9019,2.9006,2.8862,2.862,2.862,2.862,2.8584,2.8306,2.8379,2.8548,2.8005,2.798,2.8113,2.7594,2.7413,2.7365,2.7066,2.6981,2.7042,2.7295,2.7606,2.7872,2.809,2.797,2.7777,2.7811,2.7811,2.7811,2.7765,2.756,2.7451,2.767,2.7502,2.7333,2.7333,2.7333,2.6386,2.3663,2.3254,2.2372,1.9882,1.9595,1.9479,1.9203,1.8792,1.8167,1.725,1.5801,1.4567,1.366,1.2248,1.2736,1.5557,1.5646,1.5646,1.5646,1.4278,1.3571,1.3571,1.216,1.2686,1.4956,1.4956,1.6179,2.4733,2.5093,2.5798,2.6413,2.7522,2.8965,3.0895,3.1183,3.1583,0.0,3.316,3.2839,0.0,0.0,0.0,0.0,0.0,0.0,0.0,0.0,0.0,0.0,0.0,0.0,0.0,0.0,0.0,0.0,0.0,0.0,0.0,0.0,0.0,0.0,0.0,0.0,3.0214,3.0214,3.0117,2.9924,2.9839,2.9839,2.99,2.9453,2.9344,2.9501,2.9055,2.8922,2.9006,2.8813,2.8644,2.862,2.862,2.862,2.8584,2.8306,2.8258,2.8282,2.7932,2.7739,2.763,2.7473,2.7247,2.709,2.7006,2.6981,2.7042,2.7295,2.7606,2.7532,2.6303,2.6104,2.652,2.7795,2.7944,2.7379,2.5962,2.5274,2.4527,2.3128,2.244,2.2098,2.2197,2.202,2.1669,2.0965,2.0834,2.0321,1.8878,1.8474,1.8062,1.7287,1.5979,1.5026,1.4764,1.3382,1.242,1.216,1.1721,1.1855,1.2692,1.2736,1.2736,1.2736,1.2337,1.2115,1.2115,1.1721,1.1849,1.2553,1.2553,1.2901,2.5197,2.5424,2.5959,2.7068,2.8243,2.97,3.1877,3.2505,0.0,0.0,0.0,3.3668,0.0,0.0,0.0,0.0,0.0,0.0,0.0,0.0,0.0,0.0,0.0,0.0,0.0,0.0,0.0,0.0,0.0,0.0,0.0,0.0,0.0,0.0,0.0,0.0,3.0045,3.0045,2.9912,2.9634,2.9538,2.9489,2.9477,2.9163,2.9103,2.9224,2.8801,2.8717,2.885,2.8693,2.862,2.862,2.862,2.862,2.8584,2.8306,2.827,2.8306,2.7824,2.7618,2.7546,2.7283,2.7114,2.6981,2.6981,2.647,2.5902,2.6052,2.5587,2.4797,2.3691,2.3513,2.3908,2.5233,2.5428,2.4891,2.3448,2.2805,2.2183,2.1021,2.0407,2.0062,2.0128,1.9987,1.9492,1.8524,1.7489,1.6653,1.6043,1.573,1.535,1.4806,1.3726,1.3002,1.3002,1.2113,1.1525,1.1525,1.1526,1.1499,1.1499,1.1499,1.1499,1.1499,1.1499,1.1499,1.1499,1.1499,1.1499,1.1499,1.1499,1.1499,2.581,2.5998,2.6399,2.7898,2.9232,3.0808,3.2977,3.4189,3.4922,3.511,0.0,0.0,0.0,0.0,0.0,0.0,0.0,0.0,0.0,0.0,0.0,0.0,0.0,0.0,0.0,0.0,0.0,0.0,0.0,0.0,0.0,0.0,0.0,0.0,0.0,0.0,2.9803,2.9779,2.9634,0.0,2.9127,2.9006,2.8982,2.8982,2.8982,2.897,2.8729,2.862,2.862,2.862,2.8608,2.8584,2.8584,2.8572,2.8464,2.8234,2.8306,2.8439,2.7608,2.7419,2.7412,2.691,2.6618,2.6425,2.6425,2.5172,2.3744,2.374,2.2313,2.0822,2.0619,2.05,2.0461,2.0724,2.1116,2.1254,2.0666,2.0282,2.0116,2.0132,1.9924,1.9708,1.9725,1.9604,1.8655,1.6235,1.3903,1.2394,1.2416,1.2301,1.2219,1.2219,1.2063,1.1987,1.1987,1.177,1.1589,1.1589,1.152,1.1499,1.1499,1.1499,1.1499,1.1499,1.1499,1.1499,1.1499,1.1499,1.1499,1.1499,1.1499,1.1499,2.5638,2.5945,2.6707,2.8417,3.0768,3.2919,3.3908,3.4629,3.5057,3.4949,0.0,0.0,0.0,0.0,0.0,0.0,0.0,0.0,0.0,0.0,0.0,0.0,0.0,0.0,0.0,0.0,0.0,0.0,0.0,0.0,0.0,0.0,0.0,0.0,0.0,2.9851,2.9791,2.9586,2.9357,0.0,2.9043,2.891,2.8705,2.8705,2.8705,2.8657,2.8644,2.862,2.862,2.862,2.85,2.8294,2.8294,2.8162,2.7956,2.7691,2.7751,2.7908,2.7271,2.6259,2.5149,2.485,2.3652,2.232,2.1932,2.1517,2.1168,2.1057,2.0684,2.0063,1.8671,1.8307,1.7776,1.5857,1.8213,2.047,1.8657,1.7886,1.7131,1.5552,1.4749,1.4398,1.4502,1.4324,1.4006,1.3528,1.2737,1.2281,1.2471,1.2308,1.2219,1.2219,1.2063,1.1987,1.1987,1.177,1.1589,1.1589,1.152,1.1499,1.1499,1.1499,1.1499,1.1499,1.1499,1.1499,1.1499,1.1499,1.1499,1.1499,1.1499,1.1499,2.6279,2.6894,2.8016,3.0341,3.2398,3.4002,3.4603,3.4977,3.5151,3.5004,0.0,0.0,0.0,0.0,0.0,0.0,0.0,0.0,0.0,0.0,0.0,0.0,0.0,0.0,0.0,0.0,0.0,0.0,0.0,0.0,0.0,0.0,0.0,0.0,2.9755,2.955,2.9417,2.9284,2.9091,2.8825,2.8825,2.8753,2.862,2.862,2.8548,2.8427,2.8512,2.8475,2.8246,2.8367,2.8258,2.8017,2.8017,2.7932,2.7799,2.7655,2.7086,2.6338,2.5949,2.444,2.2636,2.2416,2.1471,2.0335,2.0193,1.9427,1.8673,1.8571,1.7793,1.6785,1.5769,1.5454,1.5018,1.3634,1.541,1.7034,1.5658,1.5111,1.4613,1.3534,1.2985,1.2743,1.2868,1.2786,1.2689,1.2629,1.2509,1.2455,1.2477,1.2373,1.2285,1.2225,1.2167,1.2187,1.208,1.1966,1.1846,1.1686,1.1667,1.1601,1.1542,1.1596,1.1619,1.1504,1.1499,1.1499,1.1499,1.1514,1.1514,1.1499,1.1514,1.1509,2.6961,2.7989,2.9553,3.2238,3.3614,3.4469,3.5004,3.5164,3.5191,3.5191,0.0,0.0,0.0,0.0,0.0,0.0,0.0,0.0,0.0,0.0,0.0,0.0,0.0,0.0,0.0,0.0,0.0,0.0,0.0,0.0,0.0,0.0,2.9731,2.9731,2.9477,2.9236,2.9019,2.897,2.8813,2.8548,2.85,2.8512,2.8548,2.85,2.8379,2.821,2.8451,2.827,2.7824,2.8041,2.798,2.7692,2.7366,2.7191,2.7109,2.6678,2.5522,2.4114,2.3769,2.2096,2.0053,1.9831,1.9213,1.8612,1.8629,1.7482,1.6109,1.6099,1.4751,1.33,1.3237,1.3084,1.289,1.289,1.324,1.344,1.299,1.289,1.289,1.289,1.2808,1.2765,1.2841,1.2857,1.2797,1.2623,1.264,1.2651,1.2574,1.2444,1.2361,1.2263,1.2339,1.235,1.223,1.2219,1.208,1.1862,1.183,1.173,1.1627,1.1719,1.1726,1.1565,1.1565,1.1554,1.1532,1.1585,1.1585,1.1532,1.1569,1.1552,2.648,2.8312,3.0574,3.2233,3.3467,3.4402,3.475,0.0,3.5191,0.0,0.0,0.0,0.0,0.0,0.0,0.0,0.0,0.0,0.0,0.0,0.0,0.0,0.0,0.0,0.0,0.0,0.0,0.0,0.0,0.0,0.0,2.9598,2.9453,2.9453,2.92,2.9055,2.9019,2.8789,2.8536,2.8258,2.8029,2.8041,2.8246,2.8029,2.8029,2.821,2.8246,2.8089,2.7811,2.7848,2.7715,2.7289,2.5589,2.4796,2.4334,2.2205,2.1338,2.118,2.05,1.9108,1.7612,1.7249,1.5995,1.4555,1.411,1.3744,1.3394,1.3295,1.2949,1.2699,1.2891,1.2913,1.289,1.289,1.294,1.299,1.294,1.289,1.289,1.289,1.2873,1.2835,1.2743,1.2727,1.2754,1.283,1.2678,1.2537,1.2672,1.2493,1.2394,1.2378,1.2394,1.235,1.223,1.2219,1.2159,1.1976,1.1873,1.1813,1.1751,1.1808,1.1803,1.177,1.177,1.1716,1.1612,1.1583,1.1583,1.1612,1.152,1.1515,2.8056,2.9339,3.0881,3.2848,3.3561,3.4015,3.4817,3.4977,3.5004,0.0,0.0,0.0,0.0,0.0,0.0,0.0,0.0,0.0,0.0,0.0,0.0,0.0,0.0,0.0,0.0,0.0,0.0,0.0,0.0,0.0,2.9574,2.9332,2.9188,2.9188,2.8934,2.8801,2.8801,2.8524,2.8246,2.798,2.7872,2.7872,2.798,2.786,2.7799,2.7775,2.792,2.7751,2.7297,2.6353,2.5647,2.4905,2.2949,2.1964,2.1461,2.0353,1.9294,1.8365,1.8004,1.6611,1.4878,1.4622,1.3856,1.3022,1.2783,1.2654,1.2606,1.2596,1.2574,1.2526,1.2743,1.2786,1.2803,1.2873,1.289,1.289,1.289,1.289,1.2868,1.2797,1.2841,1.283,1.2645,1.2721,1.2803,1.2786,1.2754,1.2727,1.2705,1.2613,1.2498,1.2416,1.2417,1.2379,1.2188,1.2285,1.2241,1.1998,1.2009,1.1987,1.1917,1.1982,1.1982,1.1917,1.1851,1.1792,1.1692,1.1692,1.1659,1.1589,1.165,1.1623,2.8965,2.974,3.0555,3.2772,3.3307,3.3587,3.4723,0.0,3.4882,0.0,0.0,0.0,0.0,0.0,0.0,0.0,0.0,0.0,0.0,0.0,0.0,0.0,0.0,0.0,0.0,0.0,0.0,0.0,0.0,0.0,2.9308,2.8982,2.8801,2.8801,2.8548,2.8415,2.8415,2.8137,2.7944,2.7811,2.7679,2.7364,2.6946,2.6724,2.626,2.5649,2.6411,2.6503,2.5924,2.4006,2.2902,2.2142,2.0215,1.9196,1.877,1.8119,1.6963,1.5615,1.5521,1.4364,1.2909,1.2779,1.2587,1.2405,1.2405,1.2383,1.2389,1.2493,1.2488,1.2515,1.2678,1.2727,1.2776,1.2868,1.289,1.289,1.289,1.289,1.2852,1.2727,1.2803,1.2819,1.2613,1.2748,1.2857,1.2765,1.283,1.2857,1.2765,1.2727,1.2629,1.247,1.2509,1.2482,1.2285,1.2405,1.2389,1.2096,1.2214,1.2209,1.2042,1.217,1.2129,1.2036,1.1949,1.1895,1.1862,1.1862,1.1813,1.1681,1.1792,1.177,2.7951,2.8657,2.9495,3.1343,3.2398,3.324,3.4162,0.0,0.0,0.0,0.0,0.0,0.0,0.0,0.0,0.0,0.0,0.0,0.0,0.0,0.0,0.0,0.0,0.0,0.0,0.0,0.0,0.0,0.0,0.0,2.9031,2.8536,2.8246,2.8246,2.7993,2.786,2.786,2.7594,2.7582,2.7799,2.7259,2.6224,2.4652,2.3729,2.2404,2.0899,2.3014,2.3761,2.33,2.0862,1.9844,1.9604,1.7561,1.6776,1.6449,1.4134,1.3157,1.3016,1.2592,1.2438,1.2431,1.2258,1.2301,1.2405,1.2405,1.2318,1.2232,1.2466,1.2488,1.2515,1.2678,1.2792,1.2879,1.2884,1.289,1.289,1.289,1.289,1.2852,1.2727,1.2803,1.2846,1.2716,1.2803,1.2884,1.2879,1.2884,1.2884,1.2879,1.2776,1.2656,1.2488,1.2629,1.2602,1.2416,1.2553,1.2585,1.24,1.2389,1.2339,1.2214,1.2214,1.2214,1.2209,1.2203,1.2143,1.1982,1.1982,1.1976,1.1966,1.1868,1.1819,2.7642,2.8297,2.9098,3.0533,3.1537,3.2367,3.3076,3.3708,3.4151,0.0,0.0,0.0,0.0,0.0,0.0,0.0,0.0,0.0,0.0,0.0,0.0,0.0,0.0,0.0,0.0,0.0,0.0,0.0,0.0,0.0,2.8753,2.8246,2.8029,2.8198,2.7944,2.7727,2.7558,2.6191,2.5314,2.4902,2.344,2.2214,2.1218,2.0979,2.0437,1.9695,1.8891,1.9459,2.0741,1.8513,1.7466,1.7048,1.5013,1.404,1.3664,1.278,1.2456,1.2408,1.2267,1.2301,1.2383,1.2258,1.2301,1.2389,1.2307,1.2252,1.2221,1.2417,1.2482,1.2482,1.2754,1.2797,1.2792,1.2868,1.289,1.289,1.289,1.289,1.2873,1.283,1.2857,1.2873,1.283,1.2857,1.289,1.289,1.289,1.289,1.289,1.2852,1.2776,1.2656,1.2683,1.264,1.2482,1.2547,1.2558,1.2477,1.2395,1.2416,1.2406,1.233,1.2372,1.2406,1.2406,1.2308,1.2154,1.2025,1.1987,1.1987,1.1944,1.1928,2.7241,2.7776,2.8511,3.0038,3.0627,3.1102,3.2326,3.2754,3.2878,0.0,0.0,0.0,0.0,0.0,0.0,0.0,0.0,0.0,0.0,0.0,0.0,0.0,0.0,0.0,0.0,0.0,0.0,0.0,0.0,0.0,2.8343,2.792,2.7679,2.7679,2.751,2.6914,2.581,2.4556,2.3258,2.1987,2.0638,1.9457,1.8438,1.8242,1.7805,1.7018,1.5132,1.5805,1.8106,1.5838,1.4778,1.4401,1.3075,1.2355,1.2107,1.2107,1.2181,1.2219,1.2219,1.2274,1.2329,1.2247,1.2274,1.2329,1.2247,1.2247,1.2265,1.2428,1.2471,1.2526,1.2765,1.2797,1.2786,1.2868,1.289,1.289,1.289,1.289,1.289,1.289,1.289,1.289,1.289,1.289,1.289,1.289,1.289,1.289,1.289,1.289,1.2841,1.2716,1.2743,1.2721,1.2602,1.2629,1.2634,1.2547,1.2515,1.2493,1.2488,1.2455,1.2455,1.2488,1.2488,1.2407,1.2292,1.2172,1.2134,1.2172,1.2091,1.2053,0.0,0.0,0.0,2.9784,2.9619,2.9562,3.1891,0.0,3.1038,0.0,0.0,0.0,0.0,0.0,0.0,0.0,0.0,0.0,0.0,0.0,0.0,0.0,0.0,0.0,0.0,0.0,0.0,0.0,0.0,2.7799,2.7811,2.7558,2.7126,2.653,2.6494,2.5224,2.2621,2.2522,2.1407,1.9297,1.9103,1.8118,1.6413,1.5579,1.4282,1.261,1.1838,1.3044,1.5363,1.2862,1.1819,1.1819,1.1778,1.1889,1.1987,1.1993,1.2069,1.2219,1.2219,1.2219,1.2219,1.2219,1.2219,1.2219,1.2225,1.2307,1.2405,1.241,1.2531,1.2705,1.271,1.2797,1.289,1.289,1.289,1.289,1.289,1.289,1.289,1.289,1.289,1.289,1.289,1.289,1.289,1.289,1.289,1.289,1.289,1.289,1.2841,1.2721,1.2819,1.2841,1.2721,1.2819,1.2835,1.2716,1.2705,1.2656,1.2504,1.2493,1.2493,1.2499,1.2499,1.2499,1.2499,1.2422,1.2417,1.2477,1.2281,1.2219,2.6346,0.0,0.0,0.0,0.0,0.0,0.0,0.0,0.0,0.0,0.0,0.0,0.0,0.0,0.0,0.0,0.0,0.0,0.0,0.0,0.0,0.0,0.0,0.0,0.0,0.0,0.0,0.0,2.763,2.7618,2.7799,2.7343,2.6232,2.4276,2.3926,2.2667,2.036,1.8824,1.757,1.6567,1.5129,1.3925,1.3002,1.2808,1.2432,1.1908,1.1674,1.2001,1.2675,1.1972,1.1692,1.183,1.1911,1.196,1.1998,1.2091,1.2187,1.2219,1.2219,1.2219,1.2219,1.2219,1.2219,1.2236,1.2323,1.2378,1.2438,1.2558,1.2656,1.2727,1.2814,1.2863,1.289,1.289,1.289,1.289,1.289,1.289,1.289,1.289,1.289,1.289,1.289,1.289,1.289,1.289,1.289,1.289,1.289,1.289,1.2873,1.2841,1.2868,1.2873,1.2841,1.2868,1.2873,1.2841,1.2754,1.2732,1.2786,1.2705,1.27,1.2786,1.2792,1.2792,1.2792,1.2585,1.2455,1.2401,1.229,1.2219,0.0,0.0,0.0,0.0,0.0,0.0,2.7634,2.7384,0.0,0.0,0.0,0.0,0.0,0.0,0.0,0.0,0.0,0.0,0.0,0.0,0.0,0.0,0.0,0.0,0.0,0.0,0.0,2.716,2.7003,2.6616,2.6017,2.5467,2.416,2.1835,2.1309,1.9936,1.76,1.6354,1.5134,1.3848,1.2719,1.1995,1.1665,1.1683,1.1656,1.1589,1.1585,1.1563,1.1563,1.1573,1.165,1.1677,1.1797,1.1873,1.1933,1.2053,1.2129,1.2219,1.2219,1.2219,1.2219,1.2219,1.2219,1.223,1.2301,1.2361,1.2432,1.252,1.2629,1.2732,1.2857,1.289,1.289,1.289,1.289,1.289,1.289,1.289,1.289,1.289,1.289,1.289,1.289,1.289,1.289,1.289,1.289,1.289,1.289,1.289,1.289,1.289,1.289,1.289,1.289,1.289,1.289,1.289,1.2819,1.2814,1.2884,1.2819,1.2814,1.2884,1.289,1.289,1.289,1.27,1.2547,1.2428,1.2406,1.2341,0.0,0.0,0.0,0.0,0.0,0.0,2.7753,2.6609,2.5549,0.0,0.0,0.0,0.0,0.0,0.0,0.0,0.0,0.0,0.0,0.0,0.0,0.0,0.0,0.0,0.0,2.6704,2.6439,2.6242,2.5998,2.5136,2.3387,2.2723,2.1378,1.9221,1.8637,1.7173,1.4632,1.4618,1.3578,1.1573,1.1554,1.1569,1.177,1.1597,1.1514,1.1612,1.1548,1.1499,1.151,1.1574,1.1552,1.1515,1.1618,1.1692,1.1835,1.196,1.208,1.2219,1.2219,1.2219,1.2219,1.2219,1.2219,1.2219,1.2236,1.2323,1.2427,1.2454,1.2564,1.2748,1.2857,1.289,1.289,1.289,1.289,1.289,1.289,1.289,1.289,1.289,1.289,1.289,1.289,1.289,1.289,1.289,1.289,1.289,1.289,1.289,1.289,1.289,1.289,1.289,1.289,1.289,1.289,1.289,1.289,1.289,1.289,1.289,1.289,1.289,1.289,1.289,1.289,1.2765,1.2651,1.2509,1.2645,1.2574,0.0,0.0,0.0,0.0,0.0,0.0,2.4393,2.4197,2.4283,0.0,0.0,0.0,0.0,0.0,0.0,0.0,0.0,0.0,0.0,0.0,0.0,0.0,0.0,0.0,0.0,2.6415,2.6278,2.6218,2.4783,2.3609,2.2878,2.1151,1.8982,1.6363,1.5883,1.4561,1.231,1.2206,1.1949,1.1532,1.151,1.1526,1.157,1.1521,1.151,1.1532,1.151,1.1499,1.1499,1.1526,1.1521,1.1532,1.1797,1.1879,1.1846,1.2058,1.2198,1.2219,1.2219,1.2219,1.2219,1.2219,1.2219,1.2236,1.2334,1.2406,1.2542,1.2732,1.2814,1.2857,1.2884,1.289,1.289,1.289,1.289,1.289,1.289,1.289,1.289,1.289,1.289,1.289,1.289,1.289,1.289,1.289,1.289,1.289,1.289,1.289,1.289,1.289,1.289,1.289,1.289,1.289,1.289,1.289,1.289,1.289,1.289,1.289,1.289,1.289,1.289,1.289,1.289,1.2765,1.2694,1.2667,1.2602,1.2542,0.0,0.0,0.0,2.4953,0.0,0.0,0.0,2.3646,2.3357,2.4407,0.0,0.0,0.0,0.0,0.0,0.0,0.0,0.0,0.0,0.0,0.0,0.0,0.0,0.0,0.0,2.6066,2.5572,2.4505,2.3304,2.1751,1.9672,1.8126,1.626,1.3951,1.3413,1.2672,1.1547,1.1532,1.1499,1.1499,1.1499,1.1499,1.1499,1.1499,1.1499,1.1499,1.1499,1.1499,1.1504,1.152,1.1509,1.1526,1.1786,1.1868,1.1846,1.2085,1.2219,1.2219,1.2219,1.2219,1.2219,1.2219,1.2219,1.223,1.229,1.2346,1.2482,1.2661,1.2754,1.2808,1.2873,1.289,1.289,1.289,1.289,1.289,1.289,1.289,1.289,1.289,1.289,1.289,1.289,1.289,1.289,1.289,1.289,1.289,1.289,1.289,1.289,1.289,1.289,1.289,1.289,1.289,1.289,1.289,1.289,1.289,1.289,1.289,1.289,1.289,1.289,1.289,1.289,1.2825,1.2797,1.2797,1.2738,1.2678,0.0,0.0,0.0,0.0,0.0,2.4088,0.0,0.0,0.0,2.4009,0.0,0.0,0.0,0.0,0.0,0.0,0.0,0.0,0.0,0.0,0.0,0.0,0.0,0.0,0.0,2.5354,2.4385,2.2611,2.1417,1.9417,1.6282,1.5051,1.3735,1.2121,1.1721,1.1499,1.1499,1.1499,1.1499,1.1499,1.1499,1.1499,1.1499,1.1499,1.1499,1.1499,1.1499,1.1499,1.1504,1.1563,1.1542,1.1526,1.1748,1.1841,1.1846,1.2085,1.2219,1.2219,1.2219,1.2219,1.2219,1.2219,1.2219,1.2225,1.2227,1.2308,1.2417,1.2564,1.2667,1.2765,1.2863,1.289,1.289,1.289,1.289,1.289,1.289,1.289,1.289,1.289,1.289,1.289,1.289,1.289,1.289,1.289,1.289,1.289,1.289,1.289,1.289,1.289,1.289,1.289,1.289,1.289,1.289,1.289,1.289,1.289,1.289,1.289,1.289,1.289,1.289,1.289,1.289,1.289,1.289,1.289,1.289,1.2835,0.0,0.0,0.0,0.0,2.4441,0.0,0.0,0.0,2.3198,2.2973,0.0,0.0,0.0,0.0,0.0,0.0,0.0,0.0,0.0,0.0,0.0,0.0,0.0,0.0,0.0,0.0,2.2567,2.2008,1.8727,1.6285,1.5213,1.3476,1.2248,1.1588,1.1543,1.1499,1.1499,1.1499,1.1499,1.1499,1.1499,1.1499,1.1499,1.1499,1.1499,1.1499,1.1499,1.1499,1.1499,1.1515,1.151,1.1532,1.1835,1.1906,1.1846,1.2085,1.2219,1.2219,1.2219,1.2219,1.2219,1.2219,1.2219,1.221,1.2428,1.2504,1.2564,1.2786,1.2857,1.2873,1.2884,1.289,1.289,1.289,1.289,1.289,1.289,1.289,1.289,1.289,1.289,1.289,1.289,1.289,1.289,1.289,1.289,1.289,1.289,1.289,1.289,1.289,1.289,1.289,1.289,1.289,1.289,1.289,1.289,1.289,1.289,1.289,1.289,1.289,1.289,1.289,1.289,1.289,1.289,1.289,1.289,1.2879,0.0,0.0,0.0,0.0,0.0,0.0,0.0,0.0,2.2597,0.0,0.0,0.0,0.0,0.0,0.0,0.0,0.0,0.0,0.0,0.0,0.0,0.0,0.0,0.0,0.0,0.0,0.0,0.0,0.0,1.4757,1.3348,1.234,1.1721,1.1499,1.1499,1.1499,1.1499,1.1499,1.1499,1.1499,1.1499,1.1499,1.1499,1.1499,1.1499,1.1499,1.1499,1.1499,1.1499,1.1499,1.1499,1.1521,1.1699,1.1797,1.1841,1.2004,1.2112,1.2219,1.2219,1.2219,1.2219,1.2219,1.2219,1.2252,1.2379,1.2482,1.252,1.2738,1.2835,1.289,1.289,1.289,1.289,1.289,1.289,1.289,1.289,1.289,1.289,1.289,1.289,1.289,1.289,1.289,1.289,1.289,1.289,1.289,1.289,1.289,1.289,1.289,1.289,1.289,1.289,1.289,1.289,1.289,1.289,1.289,1.289,1.289,1.289,1.289,1.289,1.289,1.289,1.289,1.289,1.289,1.289,1.289,2.4897,0.0,0.0,0.0,0.0,0.0,0.0,0.0,0.0,0.0,0.0,0.0,0.0,0.0,0.0,0.0,0.0,0.0,0.0,0.0,0.0,0.0,0.0,0.0,0.0,0.0,0.0,0.0,1.524,1.3253,1.183,1.1527,1.1434,1.1499,1.1499,1.1499,1.1499,1.1499,1.1499,1.1499,1.1499,1.1499,1.1499,1.1499,1.1499,1.1499,1.1499,1.1499,1.1499,1.1499,1.1499,1.151,1.1552,1.1683,1.1835,1.1944,1.2063,1.2219,1.2219,1.2219,1.2219,1.2219,1.2241,1.229,1.2368,1.2487,1.2558,1.2721,1.2819,1.289,1.289,1.289,1.289,1.289,1.289,1.289,1.289,1.289,1.289,1.289,1.289,1.289,1.289,1.289,1.289,1.289,1.289,1.289,1.289,1.289,1.289,1.289,1.289,1.289,1.289,1.289,1.289,1.289,1.289,1.289,1.289,1.289,1.289,1.289,1.289,1.289,1.289,1.289,1.289,1.289,1.289,1.289,0.0,0.0,0.0,0.0,0.0,0.0,0.0,0.0,2.3222,0.0,0.0,0.0,0.0,0.0,0.0,0.0,0.0,0.0,0.0,0.0,0.0,0.0,0.0,0.0,0.0,0.0,0.0,1.492,1.2726,1.1404,1.1139,1.1112,1.1221,1.1494,1.1499,1.1499,1.1499,1.1499,1.1499,1.1499,1.1499,1.1499,1.1499,1.1499,1.1499,1.1499,1.1499,1.1499,1.1499,1.1499,1.1499,1.1499,1.1504,1.1607,1.1835,1.1944,1.2063,1.2219,1.2219,1.2219,1.2219,1.2219,1.2301,1.2421,1.2493,1.2607,1.2727,1.2846,1.2884,1.289,1.289,1.289,1.289,1.289,1.289,1.289,1.289,1.289,1.289,1.289,1.289,1.289,1.289,1.289,1.289,1.289,1.289,1.289,1.289,1.289,1.289,1.289,1.289,1.289,1.289,1.289,1.289,1.289,1.289,1.289,1.289,1.289,1.289,1.289,1.289,1.289,1.289,1.289,1.289,1.289,1.289,1.289,0.0,0.0,2.621,2.5234,0.0,0.0,0.0,0.0,0.0,0.0,0.0,0.0,0.0,0.0,0.0,0.0,0.0,0.0,0.0,0.0,0.0,0.0,0.0,0.0,0.0,0.0,0.0,1.4162,1.2095,1.0854,0.0,1.1085,1.1248,1.1374,1.1455,1.1499,1.1499,1.1499,1.1499,1.1499,1.1499,1.1499,1.1499,1.1499,1.1499,1.1499,1.1499,1.1499,1.1499,1.1499,1.1499,1.1499,1.1499,1.1552,1.1659,1.1743,1.1933,1.2219,1.2219,1.2219,1.223,1.2312,1.2367,1.2438,1.2591,1.2672,1.2732,1.2852,1.289,1.289,1.289,1.289,1.289,1.289,1.289,1.289,1.289,1.289,1.289,1.289,1.289,1.289,1.289,1.289,1.289,1.289,1.289,1.289,1.289,1.289,1.289,1.289,1.289,1.289,1.289,1.289,1.289,1.289,1.289,1.289,1.289,1.289,1.289,1.289,1.2966,1.2971,1.289,1.2971,1.2966,1.289,1.289,1.289,2.6246,2.6379,0.0,0.0,2.5343,0.0,0.0,0.0,0.0,0.0,0.0,0.0,0.0,0.0,0.0,0.0,0.0,0.0,0.0,0.0,0.0,0.0,0.0,0.0,0.0,0.0,1.3711,1.268,1.1212,1.0438,0.0,0.0,1.1139,1.1313,1.1434,1.1499,1.1499,1.1499,1.1499,1.1499,1.1499,1.1499,1.1499,1.1499,1.1499,1.1499,1.1499,1.1499,1.1499,1.1499,1.1499,1.1499,1.1499,1.1531,1.1589,1.1589,1.1835,1.2159,1.2203,1.2219,1.223,1.2312,1.2367,1.2438,1.2585,1.2672,1.2748,1.2955,1.2955,1.2906,1.2988,1.295,1.289,1.289,1.289,1.289,1.289,1.289,1.289,1.289,1.289,1.289,1.289,1.289,1.289,1.289,1.289,1.289,1.289,1.289,1.289,1.289,1.289,1.289,1.289,1.289,1.289,1.289,1.289,1.289,1.289,1.289,1.2988,1.3205,1.3118,1.3118,1.3205,1.3118,1.3009,1.289,1.289,1.289]},{"header":{"parameterUnit":"m.s-1","parameterCategory":1,"la1":30.6,"la2":29.2853,"lo1":-89.7004,"lo2":-87.6739,"dx":0.0162,"dy":0.0183,"nx":112,"ny":82,"refTime":"2023-01-19T06:00:00:Z","depth":0,"parameterNumber":3,"parameterNumberName":"V-component_of_WINDS"},"data":[0.0,0.0,0.0,0.0,0.0,0.0,0.0,0.0,0.0,0.0,0.0,0.0,0.0,0.0,0.0,0.0,0.0,0.0,0.0,0.0,0.0,0.0,0.0,0.0,0.0,0.0,0.0,0.0,0.0,0.0,0.0,0.0,0.0,0.0,0.0,0.0,0.0,0.0,0.0,0.0,0.0,0.0,0.0,0.0,0.0,0.0,0.0,0.0,0.0,0.0,0.0,0.0,0.0,0.0,0.0,0.0,0.0,0.0,0.0,0.0,0.0,0.0,0.0,0.0,0.0,0.0,0.0,0.0,0.0,0.0,0.0,0.0,0.0,0.0,0.0,0.0,0.0,0.0,0.0,0.0,0.0,0.0,0.0,0.0,0.0,0.0,0.0,0.0,0.0,0.0,0.0,3.8375,3.9167,3.988,4.0448,3.988,3.9523,3.9653,0.0,0.0,0.0,0.0,0.0,0.0,0.0,0.0,0.0,0.0,0.0,0.0,0.0,0.0,0.0,0.0,0.0,0.0,0.0,0.0,0.0,0.0,0.0,0.0,0.0,0.0,0.0,0.0,0.0,0.0,0.0,0.0,0.0,0.0,0.0,0.0,0.0,0.0,0.0,0.0,0.0,0.0,0.0,0.0,0.0,0.0,0.0,0.0,0.0,0.0,0.0,0.0,0.0,0.0,0.0,0.0,0.0,0.0,0.0,0.0,0.0,0.0,0.0,0.0,0.0,0.0,0.0,0.0,0.0,0.0,0.0,0.0,0.0,0.0,0.0,0.0,0.0,0.0,0.0,0.0,0.0,0.0,0.0,0.0,0.0,0.0,0.0,0.0,0.0,0.0,0.0,0.0,0.0,0.0,0.0,0.0,0.0,0.0,0.0,0.0,0.0,0.0,0.0,0.0,3.7714,3.8343,3.9573,4.0398,4.0495,3.988,3.975,4.0301,0.0,0.0,0.0,0.0,0.0,0.0,0.0,0.0,0.0,0.0,0.0,0.0,0.0,0.0,0.0,0.0,0.0,0.0,0.0,0.0,0.0,0.0,0.0,0.0,0.0,0.0,0.0,0.0,0.0,0.0,0.0,0.0,0.0,0.0,0.0,0.0,0.0,0.0,0.0,0.0,0.0,0.0,0.0,0.0,0.0,0.0,0.0,0.0,0.0,0.0,0.0,0.0,0.0,0.0,0.0,0.0,0.0,0.0,0.0,0.0,0.0,0.0,0.0,0.0,0.0,0.0,0.0,0.0,0.0,0.0,0.0,0.0,0.0,0.0,0.0,0.0,0.0,0.0,0.0,0.0,0.0,0.0,0.0,0.0,0.0,0.0,0.0,0.0,0.0,0.0,0.0,0.0,0.0,0.0,0.0,0.0,0.0,0.0,0.0,0.0,0.0,0.0,0.0,3.9023,3.9153,3.9509,4.0463,4.1111,4.1111,4.0106,3.9782,4.0463,3.9491,0.0,0.0,0.0,0.0,0.0,0.0,0.0,0.0,0.0,0.0,0.0,0.0,0.0,0.0,0.0,0.0,0.0,0.0,0.0,0.0,0.0,0.0,0.0,0.0,0.0,0.0,0.0,0.0,0.0,0.0,0.0,0.0,0.0,0.0,0.0,0.0,0.0,0.0,0.0,0.0,0.0,0.0,0.0,0.0,0.0,0.0,0.0,0.0,0.0,0.0,0.0,0.0,0.0,0.0,0.0,0.0,0.0,0.0,0.0,0.0,0.0,0.0,0.0,0.0,0.0,0.0,0.0,0.0,0.0,0.0,0.0,0.0,0.0,0.0,0.0,0.0,0.0,0.0,0.0,0.0,0.0,0.0,0.0,0.0,0.0,0.0,0.0,0.0,0.0,0.0,0.0,0.0,0.0,0.0,0.0,0.0,0.0,0.0,0.0,0.0,0.0,0.0,4.0106,4.0495,4.0495,4.1305,4.1759,4.1612,4.043,3.9944,4.0463,3.9185,0.0,0.0,0.0,0.0,0.0,0.0,0.0,0.0,0.0,0.0,0.0,0.0,0.0,0.0,0.0,0.0,0.0,0.0,0.0,0.0,0.0,0.0,0.0,0.0,0.0,0.0,0.0,0.0,0.0,0.0,0.0,0.0,0.0,0.0,0.0,0.0,0.0,0.0,0.0,0.0,0.0,0.0,0.0,0.0,0.0,0.0,0.0,0.0,0.0,0.0,0.0,0.0,0.0,0.0,0.0,0.0,0.0,0.0,0.0,0.0,0.0,0.0,0.0,0.0,0.0,0.0,0.0,0.0,0.0,0.0,0.0,0.0,0.0,0.0,0.0,0.0,0.0,0.0,0.0,0.0,0.0,0.0,0.0,0.0,0.0,0.0,0.0,0.0,0.0,0.0,0.0,0.0,0.0,0.0,0.0,0.0,0.0,0.0,0.0,0.0,0.0,0.0,4.0106,4.0495,4.0495,4.1728,4.2278,4.1644,4.0884,4.0463,4.0495,3.9185,0.0,0.0,0.0,0.0,0.0,0.0,0.0,0.0,0.0,0.0,0.0,0.0,0.0,0.0,0.0,0.0,0.0,0.0,0.0,0.0,0.0,0.0,0.0,0.0,0.0,0.0,0.0,0.0,0.0,0.0,0.0,0.0,0.0,0.0,0.0,0.0,0.0,0.0,0.0,0.0,0.0,0.0,0.0,0.0,0.0,0.0,0.0,0.0,0.0,0.0,0.0,0.0,0.0,0.0,0.0,0.0,0.0,0.0,0.0,0.0,0.0,0.0,0.0,0.0,0.0,0.0,0.0,0.0,0.0,0.0,0.0,0.0,0.0,0.0,0.0,0.0,0.0,0.0,0.0,0.0,0.0,0.0,0.0,0.0,0.0,0.0,0.0,0.0,0.0,0.0,0.0,0.0,0.0,0.0,0.0,0.0,0.0,0.0,0.0,0.0,0.0,0.0,4.0754,4.1175,0.0,4.2019,4.2343,4.1677,4.1155,4.086,4.086,0.0,0.0,0.0,0.0,0.0,0.0,0.0,0.0,0.0,0.0,0.0,0.0,0.0,0.0,0.0,0.0,0.0,0.0,0.0,0.0,0.0,0.0,0.0,0.0,0.0,0.0,0.0,0.0,0.0,0.0,0.0,0.0,0.0,0.0,0.0,0.0,0.0,0.0,0.0,0.0,0.0,0.0,0.0,0.0,0.0,0.0,0.0,0.0,0.0,0.0,0.0,0.0,0.0,0.0,0.0,0.0,0.0,0.0,0.0,0.0,0.0,0.0,0.0,0.0,0.0,0.0,0.0,0.0,0.0,0.0,0.0,0.0,0.0,0.0,0.0,0.0,0.0,0.0,0.0,0.0,0.0,0.0,0.0,0.0,0.0,0.0,0.0,0.0,0.0,0.0,0.0,0.0,0.0,0.0,0.0,0.0,0.0,0.0,0.0,0.0,0.0,0.0,4.0619,4.1484,4.2085,0.0,4.2558,4.2656,4.2198,4.1489,4.1105,4.112,0.0,0.0,0.0,0.0,0.0,0.0,0.0,0.0,0.0,0.0,0.0,0.0,0.0,0.0,0.0,0.0,0.0,0.0,0.0,0.0,0.0,0.0,0.0,0.0,0.0,0.0,0.0,0.0,0.0,0.0,0.0,0.0,0.0,0.0,0.0,0.0,0.0,0.0,0.0,0.0,0.0,0.0,0.0,0.0,0.0,0.0,0.0,0.0,0.0,0.0,0.0,0.0,0.0,0.0,0.0,0.0,0.0,0.0,0.0,0.0,0.0,0.0,0.0,0.0,0.0,0.0,0.0,0.0,0.0,0.0,0.0,0.0,0.0,0.0,0.0,0.0,0.0,0.0,0.0,0.0,0.0,0.0,0.0,0.0,0.0,0.0,0.0,0.0,0.0,0.0,0.0,0.0,0.0,0.0,0.0,0.0,0.0,0.0,0.0,0.0,0.0,0.0,4.1111,4.2266,4.3099,4.3284,4.3323,4.3323,4.3323,4.1943,4.1134,0.0,0.0,0.0,0.0,0.0,0.0,0.0,0.0,0.0,0.0,0.0,0.0,0.0,0.0,0.0,0.0,0.0,0.0,0.0,0.0,0.0,0.0,0.0,0.0,0.0,0.0,0.0,0.0,0.0,0.0,0.0,0.0,0.0,0.0,0.0,0.0,0.0,0.0,0.0,0.0,0.0,0.0,0.0,0.0,0.0,0.0,0.0,0.0,0.0,0.0,0.0,0.0,0.0,0.0,0.0,0.0,0.0,0.0,0.0,0.0,0.0,0.0,0.0,0.0,0.0,0.0,0.0,0.0,0.0,0.0,0.0,0.0,0.0,0.0,0.0,0.0,0.0,0.0,0.0,0.0,0.0,0.0,0.0,0.0,0.0,0.0,0.0,0.0,0.0,0.0,0.0,0.0,0.0,0.0,0.0,0.0,0.0,0.0,0.0,0.0,0.0,0.0,0.0,0.0,4.2656,4.3738,4.3794,4.3798,4.3798,4.3798,4.2747,4.2099,4.2112,0.0,0.0,0.0,0.0,0.0,0.0,0.0,0.0,0.0,0.0,0.0,0.0,0.0,0.0,0.0,0.0,0.0,0.0,0.0,0.0,0.0,0.0,0.0,0.0,0.0,0.0,0.0,0.0,0.0,0.0,0.0,0.0,0.0,0.0,0.0,0.0,0.0,0.0,0.0,0.0,0.0,0.0,0.0,0.0,0.0,0.0,0.0,0.0,0.0,0.0,0.0,0.0,0.0,0.0,0.0,0.0,0.0,0.0,0.0,0.0,0.0,0.0,0.0,0.0,0.0,0.0,0.0,0.0,0.0,0.0,0.0,0.0,0.0,0.0,0.0,0.0,0.0,0.0,0.0,0.0,0.0,0.0,0.0,0.0,0.0,0.0,0.0,0.0,0.0,0.0,0.0,0.0,0.0,0.0,0.0,0.0,0.0,0.0,0.0,0.0,0.0,0.0,4.1724,4.3392,4.4485,4.4302,4.4288,4.4288,4.4288,4.3173,4.2519,4.2498,0.0,0.0,0.0,0.0,0.0,0.0,0.0,0.0,0.0,0.0,0.0,0.0,0.0,0.0,0.0,0.0,0.0,0.0,0.0,0.0,0.0,0.0,0.0,0.0,0.0,0.0,0.0,0.0,0.0,0.0,0.0,0.0,0.0,0.0,0.0,0.0,0.0,0.0,0.0,0.0,0.0,0.0,0.0,0.0,0.0,0.0,0.0,0.0,0.0,0.0,0.0,0.0,0.0,0.0,0.0,0.0,0.0,0.0,0.0,0.0,0.0,0.0,0.0,0.0,0.0,0.0,0.0,0.0,0.0,0.0,0.0,0.0,0.0,0.0,0.0,0.0,0.0,0.0,0.0,0.0,0.0,0.0,0.0,0.0,0.0,0.0,0.0,0.0,0.0,0.0,0.0,0.0,0.0,0.0,0.0,0.0,0.0,0.0,0.0,0.0,0.0,0.0,4.2438,4.4197,4.5251,4.4804,4.4763,4.4763,4.4763,4.3503,4.2686,4.2678,0.0,0.0,0.0,0.0,0.0,0.0,0.0,0.0,0.0,0.0,0.0,0.0,0.0,0.0,0.0,0.0,0.0,0.0,0.0,0.0,0.0,0.0,0.0,0.0,0.0,0.0,0.0,0.0,0.0,0.0,0.0,0.0,0.0,0.0,0.0,0.0,0.0,0.0,0.0,0.0,0.0,0.0,0.0,0.0,0.0,0.0,0.0,0.0,0.0,0.0,0.0,0.0,0.0,0.0,0.0,0.0,0.0,0.0,0.0,0.0,4.3643,0.0,0.0,0.0,0.0,0.0,0.0,0.0,0.0,0.0,0.0,0.0,0.0,0.0,0.0,0.0,0.0,0.0,0.0,0.0,0.0,0.0,0.0,0.0,0.0,0.0,0.0,0.0,0.0,0.0,0.0,0.0,0.0,0.0,0.0,0.0,0.0,0.0,0.0,0.0,0.0,0.0,4.255,4.4197,4.5371,4.5278,4.523,4.523,4.523,4.4431,4.3928,4.3941,0.0,0.0,0.0,0.0,0.0,0.0,0.0,0.0,0.0,0.0,0.0,0.0,0.0,0.0,0.0,0.0,0.0,0.0,0.0,0.0,0.0,0.0,0.0,0.0,0.0,0.0,0.0,0.0,0.0,0.0,0.0,0.0,0.0,0.0,0.0,0.0,0.0,0.0,0.0,0.0,0.0,0.0,0.0,0.0,0.0,0.0,0.0,0.0,0.0,0.0,0.0,0.0,0.0,0.0,0.0,0.0,0.0,0.0,0.0,0.0,0.0,4.5368,0.0,0.0,0.0,0.0,0.0,0.0,0.0,0.0,0.0,0.0,0.0,0.0,0.0,0.0,0.0,0.0,0.0,0.0,0.0,0.0,0.0,0.0,0.0,0.0,0.0,0.0,0.0,0.0,0.0,0.0,0.0,0.0,0.0,0.0,0.0,0.0,0.0,0.0,0.0,0.0,4.3802,4.5106,4.61,4.6466,4.65,4.6362,4.5996,4.5272,4.4678,4.4311,4.3241,0.0,0.0,0.0,0.0,0.0,0.0,0.0,0.0,0.0,0.0,0.0,0.0,0.0,0.0,0.0,0.0,0.0,0.0,0.0,0.0,0.0,0.0,0.0,0.0,0.0,0.0,0.0,0.0,0.0,0.0,0.0,0.0,0.0,0.0,0.0,0.0,0.0,0.0,0.0,0.0,0.0,0.0,0.0,0.0,0.0,0.0,0.0,0.0,0.0,0.0,0.0,0.0,0.0,0.0,5.1996,5.2582,5.1824,5.1892,5.2479,5.01,4.8789,4.8169,0.0,0.0,0.0,0.0,0.0,0.0,0.0,0.0,0.0,0.0,0.0,0.0,0.0,0.0,0.0,0.0,0.0,0.0,0.0,0.0,0.0,0.0,0.0,0.0,0.0,4.8203,4.7755,0.0,0.0,0.0,0.0,0.0,0.0,0.0,0.0,0.0,0.0,0.0,0.0,4.5185,4.6203,4.7031,4.7617,4.7686,4.7445,4.6824,4.6065,4.5341,4.4747,4.3897,4.3379,0.0,0.0,0.0,0.0,0.0,0.0,0.0,0.0,0.0,0.0,0.0,0.0,0.0,0.0,0.0,0.0,0.0,0.0,0.0,0.0,0.0,0.0,0.0,0.0,0.0,0.0,0.0,0.0,0.0,0.0,0.0,0.0,4.6389,4.7031,0.0,0.0,0.0,0.0,0.0,0.0,0.0,0.0,0.0,0.0,0.0,0.0,0.0,0.0,5.2494,5.3961,5.4375,5.3754,5.3961,5.4099,5.4168,5.341,5.3494,5.4203,5.4444,0.0,5.0513,4.8996,0.0,0.0,0.0,0.0,0.0,0.0,0.0,0.0,0.0,0.0,0.0,0.0,0.0,0.0,0.0,0.0,0.0,0.0,0.0,0.0,0.0,0.0,4.8858,5.0306,5.0168,4.9631,0.0,4.8341,4.6927,4.541,0.0,0.0,0.0,0.0,0.0,0.0,0.0,0.0,4.5363,4.6638,4.7582,4.7686,4.7686,4.7651,4.7548,4.6858,4.641,4.632,4.4954,4.4138,4.4138,4.3552,0.0,0.0,0.0,0.0,0.0,0.0,0.0,0.0,0.0,0.0,0.0,0.0,0.0,0.0,0.0,0.0,0.0,0.0,0.0,0.0,0.0,0.0,0.0,0.0,0.0,0.0,0.0,0.0,0.0,4.71,4.7789,4.772,4.8065,4.8169,0.0,0.0,0.0,0.0,0.0,0.0,0.0,0.0,0.0,5.4425,5.5478,5.6202,5.6564,5.7633,5.8219,5.8323,5.8771,5.9219,5.9599,5.884,5.8909,5.9564,5.8599,5.7667,5.6564,5.2892,5.0858,4.9962,0.0,0.0,0.0,0.0,0.0,4.8376,4.8824,0.0,0.0,0.0,0.0,0.0,0.0,0.0,0.0,0.0,0.0,0.0,0.0,0.0,0.0,5.1444,5.1479,5.1237,5.1237,5.072,4.9548,0.0,4.6376,4.5721,4.463,0.0,0.0,0.0,0.0,0.0,4.7155,4.7879,4.8651,4.9513,4.9238,4.8824,4.8376,4.7651,4.7031,4.6617,4.5548,4.4906,4.4906,4.4596,4.4423,0.0,0.0,0.0,0.0,0.0,0.0,0.0,0.0,0.0,0.0,0.0,0.0,0.0,0.0,0.0,0.0,0.0,0.0,0.0,0.0,0.0,0.0,0.0,0.0,0.0,0.0,0.0,0.0,4.8617,4.941,4.8651,4.9755,5.01,0.0,0.0,0.0,0.0,0.0,0.0,5.5081,5.7116,5.8599,5.9323,6.0289,6.0875,6.1047,6.1841,6.2496,6.3048,6.348,6.4032,6.4703,6.3791,6.3687,6.4083,6.2393,6.1634,6.122,5.6288,5.3598,5.241,5.0858,4.9927,0.0,5.0065,5.0272,5.0341,5.0735,5.0479,4.9962,4.9755,0.0,4.8548,4.8341,0.0,0.0,0.0,0.0,4.9858,5.0651,0.0,5.1858,5.2617,5.2789,5.2754,5.2548,5.2513,5.1686,0.0,4.7858,4.7134,4.6169,0.0,0.0,0.0,0.0,4.7258,4.9169,4.941,4.9824,5.0996,5.0444,4.9755,4.9169,4.841,4.7686,4.6927,4.6134,4.5604,4.5397,4.5397,4.5397,0.0,0.0,0.0,0.0,0.0,0.0,0.0,0.0,0.0,0.0,0.0,0.0,0.0,0.0,0.0,0.0,0.0,0.0,0.0,0.0,0.0,0.0,0.0,0.0,0.0,0.0,0.0,0.0,0.0,0.0,5.103,5.3479,0.0,0.0,0.0,0.0,5.5272,5.734,5.8978,5.9806,6.1376,6.2549,6.3289,6.4791,6.5895,6.6566,6.7325,6.7704,6.7738,6.7083,6.7152,6.7807,6.6378,6.5757,6.5792,6.5654,6.4412,6.2135,5.8254,5.6598,5.6357,5.4839,5.4168,5.4168,5.4203,5.4203,5.4099,5.346,5.3218,5.3046,5.2272,5.1548,5.0789,5.01,5.0375,0.0,0.0,5.1444,5.2203,5.2996,5.3253,5.346,5.4218,5.4375,5.4184,5.3494,5.3356,5.2666,0.0,4.9873,4.9341,4.7824,0.0,0.0,4.8479,4.9272,5.0065,5.0893,5.0996,5.0996,5.1099,5.0444,4.9976,4.9942,4.9203,4.8444,4.7686,4.6962,4.6203,4.5432,4.5397,4.5397,4.5397,4.5397,0.0,0.0,0.0,0.0,0.0,0.0,0.0,0.0,0.0,0.0,0.0,0.0,0.0,0.0,0.0,0.0,0.0,0.0,0.0,0.0,0.0,0.0,0.0,0.0,0.0,0.0,0.0,0.0,5.6148,5.8461,0.0,0.0,5.8788,5.9495,6.0013,6.122,6.253,6.3825,6.5309,6.6482,6.7241,6.8276,6.8931,6.9207,6.9449,6.9587,6.9587,6.9291,6.9345,6.9552,6.9035,6.8552,6.8069,6.7551,6.6585,6.5186,6.2841,6.0461,5.815,5.7116,5.6065,5.5272,5.5805,5.5651,5.5237,5.5495,5.4943,5.3892,5.2617,5.203,5.1755,5.1513,5.1582,5.1824,5.1824,5.272,5.3754,5.403,5.4444,5.4892,5.5134,5.4858,5.441,5.4168,5.4099,5.3736,5.2459,5.139,5.0513,4.9996,4.9479,4.9272,4.9513,5.0203,5.0962,5.172,5.1824,5.1996,5.2528,5.1444,5.072,5.072,4.9548,4.8479,4.7755,4.6996,4.6238,4.5432,4.5397,4.5397,4.5397,4.5397,4.5397,0.0,0.0,0.0,0.0,0.0,0.0,0.0,0.0,0.0,0.0,0.0,0.0,0.0,0.0,0.0,0.0,0.0,0.0,0.0,0.0,0.0,0.0,0.0,0.0,0.0,0.0,6.0107,6.0497,6.3078,6.4293,6.2981,6.3788,6.4502,6.4775,6.5971,6.7153,6.8157,6.9138,6.9897,7.0415,7.0932,7.1174,7.1174,7.1174,7.1174,7.1174,7.1174,7.1174,7.1174,7.1174,7.076,7.0001,6.9463,6.8532,6.729,6.6255,6.4083,6.1272,5.9944,5.8668,5.7598,5.8116,5.7978,5.7513,5.7529,5.6564,5.5115,5.4065,5.3754,5.3754,5.3754,5.3754,5.3754,5.3754,5.4494,5.5288,5.5288,5.5632,5.5927,5.5651,5.5409,5.515,5.4616,5.4685,5.4651,5.3908,5.277,5.1789,5.1513,5.1065,5.0824,5.1114,5.1563,5.2134,5.2892,5.2754,5.2789,5.3356,5.2237,5.1375,5.1134,5.0168,4.9031,4.7789,4.7238,4.6514,4.5432,4.5638,4.5673,4.5397,4.5397,4.5535,4.579,0.0,0.0,0.0,0.0,0.0,0.0,0.0,0.0,0.0,0.0,0.0,0.0,0.0,0.0,0.0,0.0,0.0,0.0,0.0,0.0,0.0,0.0,0.0,5.7356,6.1533,6.4596,6.3995,6.7291,6.8716,6.6478,6.8989,7.0415,6.9638,7.1695,7.2947,7.2942,7.29,7.2879,7.2872,7.2879,7.2879,7.2837,7.2837,7.2837,7.2803,7.2782,7.2761,7.2726,7.2726,7.2278,7.1498,7.1498,7.0222,6.8152,6.8152,6.7344,6.5792,6.3515,6.2082,6.1358,6.1358,6.1358,6.1082,5.9513,5.8081,5.6909,5.684,5.684,5.684,5.684,5.684,5.684,5.684,5.684,5.6874,5.6909,5.6874,5.6633,5.5892,5.6288,5.6391,5.4892,5.5134,5.5409,5.4685,5.4011,5.3253,5.241,5.2272,5.2548,5.3322,5.3425,0.0,5.441,5.3873,5.3425,5.3425,5.272,5.1927,5.1203,5.1099,5.0134,4.7858,4.7686,4.7031,4.5466,4.6134,4.6203,4.5432,4.5432,4.5824,4.6583,0.0,0.0,0.0,0.0,0.0,0.0,0.0,0.0,0.0,0.0,0.0,0.0,0.0,0.0,0.0,0.0,0.0,0.0,0.0,0.0,0.0,0.0,6.5202,6.3547,6.688,6.9873,7.095,7.4003,7.5536,7.4282,7.5488,7.6244,7.5983,7.662,7.7256,7.7823,7.7307,7.6956,7.6901,7.6951,7.6654,7.6034,7.6076,7.5831,7.523,7.4612,7.4016,7.352,7.352,7.2761,7.1498,7.1498,7.0843,6.9794,6.9794,6.9207,6.8138,6.5861,6.417,6.2979,6.2979,6.2255,6.1082,5.9513,5.9116,5.9081,5.7978,5.7598,5.7598,5.7598,5.7598,5.7598,5.7598,5.7961,5.853,5.9116,5.8426,5.7667,5.7995,5.7426,5.6667,5.6253,5.6322,5.6426,5.6219,5.6012,5.5426,5.4099,5.3858,5.3927,5.4168,0.0,0.0,5.4478,5.4322,5.4203,5.4203,5.3513,5.2754,5.1961,5.141,5.0134,0.0,4.7686,4.7031,4.5466,4.5604,4.5638,4.5397,4.5962,4.6376,0.0,0.0,0.0,0.0,0.0,0.0,0.0,0.0,0.0,0.0,0.0,0.0,0.0,0.0,0.0,0.0,0.0,0.0,0.0,0.0,0.0,0.0,6.8553,7.1594,7.2082,7.3402,7.5089,7.7124,7.9265,8.0527,8.0319,8.1107,8.1334,8.0567,8.0554,8.0521,8.0321,7.9892,7.9446,7.9054,7.9442,7.9212,7.8341,7.8397,7.8169,7.7669,7.6216,7.5429,7.5255,7.4264,7.3313,0.0,7.2485,7.1843,7.0863,7.0863,7.0449,0.0,0.0,0.0,0.0,0.0,6.3565,6.2151,6.1254,6.0806,6.0496,5.9633,5.9323,5.9323,5.9323,5.9323,5.9323,5.9323,5.9633,6.0082,6.053,6.0013,5.9288,5.903,5.8599,5.7978,5.7012,5.7047,5.7185,5.6874,0.0,0.0,5.5632,5.5168,5.4858,5.4547,5.4478,5.4478,0.0,5.4478,5.4478,5.4478,5.4115,5.3563,5.2754,5.1996,0.0,0.0,0.0,4.7755,4.6845,0.0,0.0,0.0,0.0,4.7203,0.0,0.0,0.0,0.0,4.8134,4.81,0.0,0.0,0.0,0.0,0.0,0.0,0.0,0.0,0.0,0.0,0.0,0.0,0.0,0.0,0.0,0.0,7.4412,7.8039,8.116,8.0509,8.0426,8.2385,8.3384,8.4149,8.4725,8.5569,8.5451,8.3948,8.391,8.3373,8.2042,0.0,0.0,0.0,0.0,8.1466,8.0615,8.0527,8.0455,8.0329,7.8031,7.7258,7.7746,7.5485,7.4362,7.4208,7.4118,7.319,7.1739,7.1739,7.1325,7.0587,6.9656,6.8448,6.7172,6.6413,6.524,0.0,0.0,0.0,0.0,6.1703,6.1634,6.1565,6.1565,6.1496,6.1427,6.1427,6.1427,6.1461,6.153,6.1427,6.0978,5.9702,5.9875,5.9771,5.7736,5.7771,5.7978,5.7322,5.7116,5.7012,5.6943,5.6253,5.5478,5.472,5.4616,0.0,5.4513,5.4478,5.4478,5.4478,0.0,0.0,5.346,5.2754,5.1651,5.0114,4.9169,4.8686,4.8686,4.8065,4.8031,4.8672,4.8134,4.8169,4.881,4.8879,4.9341,5.01,4.9306,4.9306,0.0,0.0,0.0,0.0,0.0,0.0,0.0,0.0,0.0,0.0,0.0,0.0,0.0,0.0,0.0,7.548,7.9354,8.2891,8.5448,8.6138,8.6021,8.5201,8.6393,8.7049,8.6482,8.7231,8.7578,8.7206,8.7213,8.7428,8.776,8.7193,0.0,8.6516,8.672,8.6411,8.5538,8.4943,8.4311,8.3641,0.0,0.0,8.0262,7.9159,7.7923,7.6689,7.6018,7.4816,7.3382,7.3382,7.2933,7.2071,7.007,6.9104,6.8759,6.7945,6.7083,6.6255,6.5654,6.5274,6.4895,6.4255,6.3634,6.3151,6.3151,6.2737,0.0,6.2273,6.2273,6.2393,6.2979,6.222,6.1392,6.1737,6.1461,6.0978,6.053,6.0082,5.9702,5.9564,5.9012,5.8392,5.7805,5.7081,5.6322,5.5513,5.5375,5.5168,5.4582,5.4478,5.4478,5.4478,5.4478,5.4203,5.346,5.3253,5.2252,5.0149,4.8686,4.7927,4.7927,4.7789,4.7789,4.7927,4.8376,4.8651,4.881,4.9444,5.0134,5.0858,5.01,4.9858,0.0,0.0,0.0,0.0,0.0,0.0,0.0,0.0,0.0,0.0,0.0,6.7967,0.0,0.0,7.6754,8.0372,8.4005,8.6831,8.8042,8.9638,9.0044,8.8399,8.891,8.9385,8.9366,8.9752,8.9806,8.9402,8.9386,8.9417,8.94,8.94,8.9202,8.8745,8.9184,8.9019,8.8143,8.7797,8.7156,8.6271,8.4302,8.2906,8.1999,8.046,7.907,7.7867,7.7058,7.6036,7.4878,7.4141,7.3382,7.2588,7.145,7.076,7.0311,6.9552,6.8532,6.7497,6.7137,6.6516,6.5826,6.5428,6.5067,6.4757,6.4757,6.4481,6.4205,6.4205,6.4205,6.4308,6.4653,6.3876,6.3013,6.3048,6.2461,6.1772,6.1392,6.0703,6.0185,6.0185,5.9564,5.8892,5.853,5.815,5.7513,5.6391,5.6219,5.5943,5.5134,5.503,5.4892,5.4547,5.4478,5.4341,5.3977,5.3632,5.2735,5.1203,5.0375,5.0086,5.0377,5.0474,5.0632,5.0955,5.1339,5.1542,5.1542,5.1966,5.2354,5.2694,5.2319,5.1752,0.0,0.0,0.0,0.0,0.0,0.0,0.0,0.0,6.5178,6.7834,6.9779,7.2312,7.6497,7.8516,8.0849,8.5086,8.8189,9.017,9.0317,9.206,9.2831,9.1473,9.1179,9.1289,9.1767,9.195,9.1693,9.0886,9.0849,9.0555,8.9913,9.0464,9.0555,8.9877,9.0501,9.0519,8.9877,8.9693,8.9258,8.8476,8.6481,8.5037,8.4032,8.2016,8.0584,7.95,7.8083,7.693,7.596,7.443,7.3451,7.2899,7.2761,7.2312,7.1636,7.107,6.9966,6.8739,6.8601,6.7669,6.6551,6.6378,6.624,6.6102,6.6102,6.5999,6.5895,6.5895,6.5895,6.5895,6.5895,6.529,6.4565,6.3945,6.3255,6.2549,6.1875,6.1151,6.0634,6.0634,6.0013,5.9461,5.9461,5.9461,5.8909,5.7253,5.7012,5.6736,5.5927,5.5685,5.5375,5.4789,5.4582,5.4478,5.4478,5.3839,5.3115,5.2479,5.2393,5.2581,5.3106,5.337,5.3713,5.422,5.4261,5.4311,5.4311,5.4311,5.4383,5.4514,5.4514,5.3824,0.0,0.0,0.0,6.2768,6.3552,6.5007,0.0,0.0,7.1233,7.4368,7.69,7.9192,8.1158,8.4535,8.7655,8.9601,9.1473,9.2941,9.3639,9.3969,9.4079,9.3896,9.3272,9.2537,9.1877,9.2501,9.2611,9.173,9.1657,9.162,9.1546,9.162,9.162,9.1546,9.162,9.162,9.1546,9.0812,9.0391,9.0301,8.9329,8.8434,8.7613,8.6626,8.5355,8.3685,7.9969,7.7513,7.596,7.443,7.3761,7.3623,7.2968,7.2623,7.2554,7.2485,7.1898,7.1015,7.038,6.9621,6.8793,6.8103,6.7394,6.6896,6.6896,6.6413,6.5895,6.5895,6.5895,6.5895,6.5895,6.529,6.4669,6.46,6.4014,6.3427,6.3358,6.2737,6.2238,6.2238,6.1599,6.1047,6.1047,6.1047,6.0289,5.8116,5.7771,5.7529,5.6771,5.603,5.5582,5.5478,5.4892,5.4478,5.4478,5.3839,5.3356,5.3287,5.3116,5.3078,5.3252,5.3806,5.4146,5.4286,5.4311,5.4311,5.4311,5.4311,5.4658,5.5366,5.5366,5.4894,6.1838,0.0,0.0,0.0,6.6916,6.9853,7.3142,7.4757,7.646,7.9674,8.2296,8.4609,8.6701,8.8867,9.0812,0.0,9.3749,9.4446,9.4299,9.4703,9.4666,9.3712,9.3712,9.3639,9.3272,9.3565,9.3639,9.3272,9.3235,9.3051,9.2574,9.2574,9.2317,9.1803,9.1803,9.1803,9.1803,9.1473,9.1033,9.0528,9.0264,8.9129,8.7309,8.7062,8.5803,8.3719,8.1504,7.9686,7.8139,7.6534,7.5618,7.5125,7.4331,7.3756,7.329,7.2846,7.2209,7.1463,7.1153,7.0553,6.9897,6.9552,6.8966,6.8345,6.8345,6.7793,6.7187,6.7187,6.7187,6.7187,6.7187,6.66,6.5911,6.5516,6.5171,6.4688,6.3772,6.3358,6.3032,6.2583,6.1841,6.1289,6.1289,6.1289,6.0978,6.0013,5.953,5.8806,5.7598,5.715,5.6754,5.6357,5.6012,5.5667,5.5168,5.5048,5.488,5.468,5.4747,5.5079,5.5713,5.6041,5.6406,5.672,5.6836,5.687,5.687,5.687,5.7017,5.7361,5.7361,5.7189,6.3086,0.0,0.0,6.76,7.1248,7.5065,7.7105,7.914,8.1452,8.4445,8.6611,8.8683,9.0886,9.2134,9.3235,9.4446,9.5511,9.5878,9.507,9.5474,9.5254,9.3639,9.3749,9.4042,9.4263,9.4299,9.4299,9.4299,9.4299,9.4042,9.3455,9.3235,9.2831,9.217,9.1913,9.1803,9.1803,9.1803,9.149,9.0847,9.0905,8.982,8.7765,8.7435,8.6067,8.394,8.3096,8.1607,7.9661,7.8271,7.6963,7.5758,7.4996,7.4206,7.3417,7.2887,7.2347,7.1795,7.1567,7.1153,7.0691,7.0484,7.0035,6.9621,6.9621,6.9207,6.8739,6.8739,6.8739,6.867,6.8463,6.7876,6.7137,6.6378,6.6068,6.5585,6.4481,6.422,6.4101,6.3549,6.2772,6.2255,6.2255,6.2082,6.1875,6.1668,6.1185,6.0289,5.8737,5.815,5.7633,5.6874,5.6805,5.6564,5.5961,5.6356,5.6475,5.627,5.6571,5.7074,5.7862,5.7929,5.8116,5.8561,5.8646,5.8687,5.8687,5.8687,5.8687,5.8687,5.8687,5.8687,0.0,0.0,6.8765,7.3435,7.7121,8.0404,8.3581,8.4976,8.6261,8.8702,8.9877,9.1033,9.2721,9.4317,9.5382,9.5455,9.6795,9.753,9.6722,9.6649,9.6061,9.4446,9.3602,9.3455,0.0,9.4299,9.4299,9.4299,9.4299,9.4299,9.4263,9.3529,9.3088,9.3051,9.2244,9.1803,9.1803,9.1803,9.1803,9.1767,9.1767,9.1308,9.0447,8.885,8.7267,8.5675,8.4878,8.2701,7.9627,7.8819,7.7048,7.4874,7.4136,7.3376,7.2734,7.2713,7.2692,7.2554,7.1774,7.1498,7.1325,7.0636,7.038,7.038,7.038,7.0346,7.0346,7.0346,7.0346,7.0173,6.9449,6.869,6.7876,6.7118,6.6413,6.5895,6.5826,6.5826,6.5826,6.5792,6.5152,6.46,6.46,6.3979,6.3289,6.2583,6.2445,6.1893,6.0323,5.8806,5.7633,5.6874,5.6805,5.6805,5.6771,5.7433,5.7852,5.7832,5.8349,5.8677,5.8871,5.8625,5.8524,5.8687,5.8687,5.8687,5.8687,5.8687,5.8687,5.8687,5.8687,5.8687,0.0,0.0,7.4184,7.8002,8.1782,8.5159,8.7271,8.883,9.0005,9.0812,9.0776,9.0611,9.0647,9.1528,9.2427,9.2978,9.5327,9.7016,9.6722,9.7163,9.6502,9.3822,9.3749,0.0,0.0,0.0,0.0,9.5768,9.5401,9.5107,9.5107,9.4336,9.3639,9.3125,9.2244,9.1803,9.1803,9.1803,9.1803,9.1803,9.1253,9.0592,8.9767,8.8683,8.7589,8.6553,8.5767,8.4462,8.2849,8.1509,7.9864,7.8062,7.7269,7.6177,7.501,7.501,7.466,7.4053,7.2761,7.2312,7.2278,7.2002,7.1553,7.1118,7.1118,7.0794,7.0415,7.0415,7.0415,7.0346,7.0104,6.9483,6.8724,6.7911,6.7532,6.7083,6.6102,6.6275,6.6482,6.5999,6.5688,6.5516,6.5516,6.4841,6.4083,6.3324,6.2358,6.153,6.1013,6.0943,6.0663,5.986,6.0258,6.0184,5.9139,5.9488,5.9627,5.9394,5.9724,5.9826,5.9583,5.9477,5.9202,5.8725,5.8687,5.8687,5.8687,5.8687,5.8985,5.9467,5.8947,5.8985,0.0,7.4625,7.958,8.3124,8.6371,8.916,9.0758,9.195,9.2611,9.2317,9.14,9.0354,8.9546,8.9363,8.9601,9.0372,9.2758,9.474,9.5327,9.5841,9.5511,9.3749,9.3455,0.0,0.0,0.0,0.0,9.6098,9.5785,9.5639,9.5895,9.518,9.4373,9.3565,9.2721,9.2134,9.1803,9.1803,9.1803,9.1803,9.1289,9.0776,9.0207,8.9124,8.8353,8.7785,8.6701,8.561,8.4489,8.3173,8.1523,7.9735,7.8901,7.7613,7.6188,7.6188,7.5692,7.4864,7.3854,7.3512,7.3472,7.3183,7.2733,7.2255,7.2016,7.1588,7.1208,7.1208,7.1208,7.1174,7.0863,7.0449,6.9897,6.9104,6.8704,6.8276,6.731,6.7275,6.7256,6.6792,6.6482,6.637,6.6655,6.5994,6.5302,6.4883,6.3676,6.2665,6.2162,6.2324,6.2393,6.2135,6.2379,6.2105,6.1112,6.1208,6.1251,6.0982,6.1136,6.1103,6.0794,6.0508,6.0099,5.9579,5.9579,5.9579,5.9579,5.9579,5.9839,6.0359,5.9839,5.9876,7.5432,8.0057,8.4665,8.8592,9.0776,9.2317,9.3896,9.4226,9.3969,9.3051,9.151,9.0024,0.0,0.0,8.7124,8.7986,8.9711,9.151,9.3161,9.3455,9.3712,0.0,0.0,0.0,0.0,0.0,0.0,9.5382,0.0,9.5804,9.6649,9.5932,9.5144,9.4373,9.3565,9.2758,9.1877,9.1803,9.1803,9.1803,9.1803,9.1767,9.1693,9.0097,8.9363,8.9253,8.7675,8.6097,8.4535,8.3756,8.2029,7.977,7.9036,7.7748,7.6318,7.6318,7.5799,7.5119,7.5119,7.5083,7.4882,7.4111,7.3858,7.3721,7.3053,7.2838,7.2838,7.2838,7.2838,7.2645,7.1884,7.1643,7.1435,7.0744,6.9984,6.9451,6.9396,6.8809,6.8256,6.8221,6.7634,6.7364,6.8057,6.7474,6.6955,6.706,6.6304,6.5219,6.3819,6.3108,6.2979,6.3639,6.3178,6.281,6.2688,6.2632,6.2606,6.2606,6.254,6.2439,6.2402,6.1659,6.1261,6.1187,6.1187,6.1187,6.1187,6.1187,6.1224,6.1261,6.1224,6.1224,8.1012,8.5069,8.8556,9.1418,9.2905,9.3602,9.3455,9.3418,9.2648,9.0005,8.7692,8.5527,0.0,0.0,0.0,8.7105,9.173,0.0,9.7346,9.808,0.0,9.7108,0.0,9.5731,9.4153,9.4336,0.0,0.0,9.529,9.5217,9.6612,9.5932,9.5418,9.5198,9.441,9.3602,9.2794,9.2134,9.1803,9.1803,9.1803,9.1473,9.0886,8.984,8.9069,8.8463,8.7435,8.6084,8.4593,8.4373,8.2881,8.0667,8.0485,7.9391,7.8005,7.8005,7.7442,7.6696,7.6696,7.5981,7.4974,7.4772,7.4681,7.466,7.4473,7.4397,7.4397,7.4397,7.4397,7.4381,7.4168,7.3708,7.3231,7.3054,7.24,7.1656,7.1053,7.0788,7.0469,6.9849,6.9601,6.9388,6.9128,6.8865,6.8597,6.8195,6.7907,6.7186,6.5569,6.5707,6.5808,6.5445,6.5802,6.584,6.5238,6.4572,6.4212,6.4212,6.3659,6.3033,6.2402,6.2179,6.1819,6.1224,6.1187,6.1187,6.1187,6.1187,6.1521,6.2068,6.1484,6.151,8.5563,8.9069,9.1987,9.3712,9.4483,9.4336,9.2427,9.2317,9.1326,8.6995,8.4756,0.0,0.0,0.0,0.0,0.0,0.0,0.0,9.7199,9.8521,9.9292,0.0,9.8851,0.0,9.6539,9.6502,9.6722,0.0,9.6061,9.5878,9.7163,9.6795,9.6245,9.5528,9.507,9.4263,9.3125,9.2611,9.217,9.1803,9.1803,9.1546,9.1106,8.9913,8.9143,8.8666,0.0,8.65,8.56,8.4903,8.3801,8.2517,8.1819,8.0755,7.9653,7.9653,7.914,7.8369,7.7986,7.7312,7.6467,7.5761,7.5548,7.5441,7.5119,7.501,7.501,7.501,7.501,7.501,7.501,7.4689,7.4386,7.4386,7.3797,7.3101,7.2655,7.2262,7.1797,7.1115,7.0902,7.0806,7.055,7.047,7.0314,7.0033,6.9639,6.9092,6.8244,6.7907,6.768,6.7526,6.7395,6.7119,6.6673,6.5856,6.5373,6.5373,6.4928,6.4482,6.4036,6.3999,6.3813,6.3368,6.3342,6.3342,6.3342,6.3342,6.3368,6.3442,6.3368,6.3368,8.9473,9.2281,9.463,9.5474,9.5492,9.4501,9.1308,9.0849,8.9582,8.4188,0.0,8.1269,7.9743,8.0314,8.1619,8.3564,0.0,9.206,9.5787,9.7512,9.9274,10.1698,10.0613,9.9548,9.9438,9.8704,9.8227,9.8227,9.7566,9.7383,9.7879,9.7787,9.7089,9.5675,9.5455,9.4666,9.3272,9.3051,9.2537,9.1803,9.1803,9.1803,9.173,9.0134,8.94,8.9326,0.0,0.0,8.6738,8.5343,8.4646,8.4315,8.2884,8.1819,8.1012,8.0901,8.0388,7.9669,7.8883,7.8589,7.8348,7.6841,7.6336,7.622,7.5512,7.5317,7.5317,7.5317,7.5317,7.5317,7.5317,7.5335,7.5353,7.5353,7.485,7.4383,7.4275,7.3647,7.2908,7.2377,7.2106,7.1994,7.2195,7.2036,7.1941,7.2087,7.1392,7.0961,7.1217,6.9797,6.8997,6.9481,6.8395,6.7565,6.7453,6.6711,6.6265,6.6265,6.6153,6.6079,6.6079,6.6079,6.6079,6.6079,6.6079,6.6079,6.6079,6.6079,6.5708,6.5002,6.5745,6.5671,9.34,9.4868,9.5511,9.6282,9.5474,9.3822,9.1216,8.8647,0.0,0.0,0.0,7.8919,7.7913,7.9528,8.2186,8.5766,8.9344,9.3731,0.0,0.0,10.1808,0.0,0.0,0.0,0.0,0.0,0.0,0.0,0.0,0.0,9.7953,9.7273,9.6795,9.6502,9.5217,9.4373,9.4079,9.2721,9.195,9.1803,9.1803,9.1803,9.173,9.0134,8.94,8.9326,0.0,0.0,8.5967,8.571,8.4792,8.3564,8.3308,8.228,8.0938,8.0241,7.9926,7.9669,7.8883,7.8589,7.8427,7.7406,7.7118,7.7087,7.694,7.6909,7.6909,7.6909,7.6909,7.6909,7.6909,7.7019,7.7165,7.7165,7.7127,7.694,7.6263,7.5507,7.4912,7.4794,7.4218,7.3802,7.3942,7.3387,7.299,7.3097,7.2999,7.2925,7.2964,7.1409,7.0147,6.9707,6.9447,6.9013,6.8345,6.7565,6.7082,6.7082,6.6451,6.6079,6.6079,6.6079,6.6079,6.6079,6.6079,6.6079,6.6079,6.6079,6.6005,6.5893,6.6042,6.6005,9.4831,9.6098,9.6722,9.6722,9.5474,9.3198,8.905,0.0,0.0,0.0,0.0,7.7304,7.7289,7.8993,0.0,8.4058,8.7582,9.1932,0.0,0.0,0.0,0.0,0.0,0.0,0.0,0.0,0.0,0.0,0.0,0.0,9.8557,9.7346,9.6685,9.6685,9.5547,9.4703,9.4299,9.3088,9.2244,9.1803,9.1803,9.1803,9.1767,9.0592,9.0024,8.9913,0.0,0.0,8.6958,8.6151,8.5343,8.4572,8.3711,8.2941,8.2096,8.0865,8.0681,8.0865,7.9669,7.9507,7.9653,7.8369,7.7656,7.7289,7.7289,7.7289,7.7304,7.7433,7.7448,7.7478,7.7517,7.7643,7.7703,7.7703,7.7762,7.771,7.7303,7.6602,7.6039,7.6124,7.5472,7.4959,7.5109,7.4802,7.4421,7.4078,7.4017,7.3868,7.346,7.2628,7.1822,7.1069,7.0611,7.0165,6.9794,6.9013,6.8568,6.8568,6.7788,6.7342,6.7342,6.7342,6.7342,6.7342,6.7342,6.7342,6.7342,6.7342,6.7119,6.6711,6.7156,6.7119,9.5437,9.6685,9.753,9.7052,9.5327,9.2391,8.7252,8.3654,0.0,0.0,7.6093,7.613,7.7142,7.8369,7.9926,0.0,8.5013,8.905,9.4465,0.0,0.0,0.0,0.0,0.0,0.0,0.0,0.0,0.0,0.0,0.0,9.8594,9.7383,9.6685,9.6685,9.5768,9.496,9.4299,9.3308,9.2464,9.1803,9.1803,9.1803,9.1767,9.0959,9.0592,9.0519,0.0,0.0,0.0,8.6848,8.6114,8.5673,8.4425,8.3855,8.3521,8.1904,8.1827,8.23,8.0514,8.0315,8.0593,7.9139,7.8158,7.7546,7.7362,7.7341,7.7402,7.7575,7.7599,7.7658,7.7776,7.7798,7.7842,7.7908,7.7922,7.7922,7.7922,7.7404,7.6989,7.7116,7.6477,7.5948,7.6071,7.5912,7.5578,7.4946,7.4872,7.4649,7.4017,7.3906,7.3608,7.2791,7.1775,7.1094,7.0908,7.0314,6.9979,6.9979,6.9348,6.9013,6.9013,6.8865,6.8753,6.8753,6.8605,6.8493,6.8493,6.8493,6.8196,6.7565,6.8196,6.8159,9.5988,9.6685,9.6979,9.764,9.4887,9.1143,8.7692,0.0,0.0,7.7436,7.6041,7.5491,7.7032,7.7436,7.8537,8.1672,8.3141,8.6334,9.3418,9.6558,0.0,0.0,0.0,0.0,0.0,0.0,0.0,0.0,0.0,0.0,0.0,9.6795,9.6685,9.6685,9.5217,9.4373,9.4299,9.2721,9.1877,9.1803,9.1803,9.1803,9.1767,9.0959,9.0592,9.0555,0.0,0.0,0.0,8.8023,8.7105,8.5783,8.5637,8.524,8.458,8.2891,8.2876,8.3387,8.0988,8.0213,8.0139,7.9253,7.8725,7.8332,7.7546,7.7433,7.759,7.7569,7.7688,7.7769,7.782,7.7885,7.8028,7.8207,7.8248,7.8248,7.8248,7.8211,7.8137,7.8151,7.7519,7.6976,7.699,7.6321,7.5763,7.5689,7.5689,7.5652,7.5578,7.5578,7.528,7.4463,7.3014,7.1738,7.0982,7.0821,7.0796,7.0796,7.0722,7.0672,7.0672,6.9979,6.9608,6.9608,6.8865,6.8493,6.8493,6.8493,6.8456,6.8382,6.8456,6.8456,9.5658,9.7419,9.8117,9.7933,9.4813,9.0959,8.7711,0.0,7.8369,7.7472,7.6408,7.5968,7.7105,7.6885,7.7142,7.894,7.9528,8.1583,8.6995,8.9821,9.3565,0.0,0.0,0.0,0.0,0.0,0.0,0.0,0.0,0.0,0.0,9.6685,9.6685,9.6685,9.5144,9.4299,9.4299,9.2648,9.1803,9.1803,9.1803,9.1803,9.1803,9.1473,9.1326,9.1289,0.0,0.0,0.0,8.839,8.7545,8.6498,8.6123,8.5839,8.537,8.3345,8.3129,8.3619,8.1677,8.096,8.0849,8.0,7.9319,7.8697,7.785,7.7673,7.7747,7.7835,7.7871,7.7943,7.808,7.815,7.8207,7.8276,7.829,7.829,7.829,7.829,7.829,7.829,7.803,7.7807,7.7807,7.7547,7.7138,7.6655,7.6581,7.6395,7.5875,7.5801,7.5689,7.5355,7.4314,7.3311,7.2481,7.1961,7.1663,7.1663,7.1205,7.0908,7.0908,7.0598,7.0425,7.0425,6.9645,6.9236,6.9236,6.9236,6.9236,6.9236,6.9719,6.9942,9.4006,9.6649,9.797,9.764,9.4483,9.0592,0.0,0.0,7.8369,7.7472,7.6665,7.635,7.7142,7.6628,7.635,7.7179,7.7289,7.8647,8.25,8.5123,8.883,0.0,0.0,0.0,0.0,0.0,0.0,0.0,0.0,0.0,0.0,9.6832,9.6575,9.6355,9.4997,9.4189,9.3932,9.2501,9.1803,9.1803,9.1803,9.1803,9.1803,9.1803,9.1803,0.0,0.0,0.0,0.0,8.8956,8.8183,8.7392,8.6752,8.6574,8.6365,8.4553,8.4246,8.4515,8.2628,8.1851,8.1466,8.0371,7.9446,7.8705,7.8113,7.7922,7.7871,7.7986,7.8043,7.8113,7.8262,7.829,7.829,7.829,7.829,7.829,7.829,7.829,7.829,7.829,7.829,7.829,7.829,7.829,7.8104,7.7547,7.7435,7.7213,7.6618,7.6544,7.6469,7.6209,7.5689,7.4909,7.3831,7.346,7.3051,7.2568,7.2184,7.1874,7.1651,7.1391,7.1279,7.1279,7.0462,7.0054,7.0054,7.0054,7.0054,7.0091,7.0648,7.0908,9.083,9.3712,9.5712,9.6539,9.3639,8.9784,0.0,0.0,7.8369,7.7472,7.6665,7.635,7.7142,7.6628,7.635,7.7179,7.7289,7.8463,8.1746,8.4278,0.0,0.0,0.0,0.0,0.0,0.0,0.0,0.0,0.0,0.0,0.0,9.7126,9.6355,9.5528,9.4703,9.3932,9.3125,9.2244,9.1803,9.1803,9.1803,9.1803,9.1803,9.1803,0.0,0.0,0.0,0.0,0.0,8.9942,8.9219,8.8443,8.7763,8.7595,8.7667,8.6852,8.6629,8.6449,8.4035,8.266,8.1731,8.0059,7.8945,7.8327,7.8276,7.8179,7.8014,7.8014,7.8127,7.829,7.829,7.829,7.829,7.829,7.829,7.829,7.829,7.829,7.829,7.829,7.829,7.829,7.829,7.829,7.829,7.829,7.829,7.829,7.829,7.8253,7.7956,7.7175,7.7064,7.6395,7.4723,7.5318,7.5095,7.3497,7.4128,7.4203,7.3423,7.2605,7.2196,7.2196,7.1316,7.0895,7.0895,7.0895,7.0895,7.0895,7.0908,7.0908,8.7142,8.9528,9.0592,9.0812,8.9087,8.6628,8.3948,0.0,7.8369,7.7472,7.6665,7.635,7.7142,7.7105,7.7215,7.8075,7.8185,7.8552,0.0,0.0,0.0,0.0,0.0,0.0,0.0,0.0,0.0,0.0,0.0,0.0,0.0,9.6832,9.6575,9.6318,9.5547,9.4997,9.4721,9.3382,9.2684,9.2684,9.206,9.1803,9.1803,9.1803,0.0,0.0,0.0,0.0,0.0,8.9322,8.8595,8.7817,8.7723,8.7412,8.6868,8.6178,8.5586,8.4889,8.3046,8.182,8.0928,7.9851,7.8959,7.829,7.829,7.8248,7.8221,7.8221,7.8248,7.829,7.829,7.829,7.829,7.829,7.829,7.829,7.829,7.829,7.829,7.829,7.829,7.829,7.829,7.829,7.829,7.829,7.829,7.829,7.829,7.829,7.8216,7.7956,7.7919,7.725,7.5578,7.5652,7.5578,7.5057,7.528,7.5057,7.424,7.398,7.3571,7.3014,7.2196,7.1775,7.1775,7.1775,7.2072,7.2592,7.2592,7.2592,0.0,8.5747,8.7288,8.7288,8.6077,0.0,0.0,8.0094,7.8369,7.7472,7.6885,7.6702,7.7215,7.7069,7.7105,7.7965,7.7855,7.7965,0.0,0.0,0.0,0.0,0.0,0.0,0.0,0.0,0.0,0.0,0.0,0.0,0.0,0.0,9.6685,9.6685,9.5914,9.5345,9.507,9.3749,9.3125,9.3162,9.2316,9.1948,9.202,0.0,0.0,0.0,0.0,0.0,0.0,8.9582,8.8816,8.8055,8.7937,8.7407,8.6644,8.6233,8.5521,8.4666,8.3381,8.234,8.1448,8.0334,7.9219,7.829,7.829,7.829,7.829,7.829,7.829,7.829,7.829,7.829,7.829,7.829,7.829,7.829,7.829,7.829,7.829,7.829,7.829,7.829,7.829,7.829,7.829,7.829,7.829,7.829,7.829,7.829,7.829,7.829,7.829,7.7881,7.6841,7.6729,7.6469,7.5838,7.6098,7.5912,7.5095,7.5057,7.4686,7.3868,7.3348,7.2939,7.2642,7.2939,7.32,7.3423,7.372,7.3683,0.0,0.0,0.0,0.0,0.0,0.0,0.0,7.9507,0.0,7.7399,7.7179,7.7179,7.7289,7.6702,7.646,7.7252,7.6775,0.0,0.0,8.1615,0.0,0.0,0.0,0.0,0.0,0.0,0.0,0.0,0.0,0.0,0.0,0.0,9.6685,9.6705,9.6007,9.5236,9.441,9.3547,9.3162,9.3307,9.2514,9.2215,9.2409,0.0,0.0,0.0,0.0,0.0,0.0,9.0395,8.9662,8.89,8.8318,8.7564,8.6784,8.6784,8.6301,8.5483,8.4592,8.3827,8.2935,8.1263,7.9702,7.8476,7.8402,7.8364,7.829,7.829,7.829,7.829,7.829,7.829,7.829,7.829,7.829,7.829,7.829,7.829,7.829,7.829,7.829,7.829,7.829,7.829,7.829,7.829,7.829,7.829,7.829,7.829,7.829,7.829,7.829,7.829,7.829,7.829,7.7658,7.6098,7.6729,7.6804,7.5949,7.5912,7.5503,7.4686,7.4686,7.4314,7.3571,7.4314,7.4314,7.3571,7.4351,7.424,0.0,0.0,0.0,0.0,0.0,0.0,0.0,7.6974,7.6644,7.6423,7.5894,7.5858,7.7069,7.7142,7.7289,7.8148,7.8148,0.0,0.0,0.0,0.0,0.0,0.0,0.0,0.0,0.0,0.0,0.0,0.0,0.0,0.0,0.0,9.6762,9.6914,9.6748,9.627,9.546,9.4007,9.3361,9.3503,9.2709,9.2338,9.2409,0.0,0.0,0.0,0.0,0.0,9.0411,8.9776,8.9024,8.8297,8.8158,8.7564,8.6784,8.6784,8.6301,8.5409,8.396,8.3381,8.2935,8.1263,8.0445,8.0036,7.9405,7.881,7.829,7.829,7.829,7.829,7.829,7.829,7.829,7.829,7.829,7.829,7.829,7.829,7.829,7.829,7.829,7.829,7.829,7.829,7.829,7.829,7.829,7.829,7.829,7.829,7.829,7.829,7.829,7.829,7.829,7.829,7.8141,7.7733,7.7919,7.7658,7.6841,7.6804,7.6395,7.554,7.554,7.5429,7.5243,7.5429,7.5429,7.5243,7.5429,7.5095,0.0,0.0,0.0,0.0,7.6151,7.6628,7.6203,7.5799,7.5542,7.5542,7.5197,7.527,7.6518,7.6738,7.7032,7.7876,7.8332,0.0,0.0,0.0,0.0,0.0,0.0,0.0,0.0,0.0,0.0,0.0,0.0,0.0,0.0,0.0,9.6876,9.7007,9.6345,9.5939,9.5902,9.4649,9.3927,9.3733,9.29,9.2582,9.2667,0.0,0.0,0.0,0.0,0.0,9.0332,8.9984,8.9161,8.8084,8.8084,8.7564,8.6784,8.6784,8.6301,8.5409,8.4183,8.3269,8.2489,8.1597,8.078,8.0074,7.9628,7.8959,7.829,7.829,7.829,7.829,7.829,7.829,7.829,7.829,7.829,7.829,7.829,7.829,7.829,7.829,7.829,7.829,7.829,7.829,7.829,7.829,7.829,7.829,7.829,7.829,7.829,7.829,7.829,7.829,7.829,7.829,7.829,7.829,7.829,7.8104,7.7658,7.7658,7.725,7.6395,7.5986,7.5801,7.5801,7.6209,7.6209,7.5801,7.6209,7.5763,0.0,7.1747,7.4536,7.4536,7.5249,7.5873,7.5763,7.5322,7.4867,7.472,7.4903,7.5307,7.613,7.6387,0.0,0.0,0.0,0.0,0.0,0.0,0.0,0.0,0.0,0.0,0.0,0.0,0.0,0.0,0.0,0.0,0.0,0.0,0.0,9.6879,9.5569,9.5122,9.5731,9.49,9.4231,9.3738,9.3051,9.2855,9.2988,9.2988,0.0,0.0,0.0,0.0,9.0499,9.0499,8.9533,8.8084,8.8084,8.7638,8.7007,8.7007,8.6561,8.5855,8.4889,8.3529,8.2192,8.2192,8.1151,7.9851,7.9739,7.9108,7.8476,7.8327,7.829,7.8327,7.8439,7.8402,7.829,7.829,7.829,7.8327,7.8476,7.8476,7.8476,7.8476,7.8587,7.8625,7.8513,7.8476,7.8476,7.8476,7.8364,7.829,7.829,7.829,7.829,7.829,7.829,7.829,7.829,7.829,7.829,7.829,7.829,7.829,7.829,7.829,7.7993,7.7287,7.6581,7.6172,7.6172,7.6915,7.6915,7.6209,7.6952,7.6469,6.9339,7.1358,7.2863,7.2863,7.4001,7.4903,7.4221,7.4515,7.472,7.4037,7.4955,7.6166,7.6959,7.7745,7.8479,0.0,0.0,0.0,0.0,0.0,0.0,0.0,0.0,0.0,0.0,0.0,0.0,0.0,0.0,0.0,0.0,0.0,0.0,9.6411,9.5521,9.4867,9.4464,9.3496,9.3068,9.3141,9.3029,9.2971,9.2988,9.2988,9.2988,0.0,0.0,9.2059,9.0499,9.0499,8.9533,8.8084,8.8084,8.8025,8.7898,8.7898,8.7824,8.749,8.5929,8.4369,8.3009,8.3009,8.2377,8.1486,8.0728,7.9962,7.9182,7.8476,7.829,7.8476,7.9145,7.881,7.829,7.829,7.829,7.8476,7.9182,7.933,7.933,7.933,7.9888,8.0097,7.9442,7.933,7.933,7.933,7.8736,7.829,7.829,7.829,7.829,7.829,7.829,7.829,7.829,7.829,7.829,7.829,7.829,7.829,7.829,7.829,7.8253,7.8104,7.7993,7.7919,7.7919,7.8067,7.8067,7.7919,7.8067,7.7621,6.8508,7.0624,7.2422,7.1967,7.3729,7.5359,7.4551,7.461,7.4793,7.4441,7.4955,7.5821,7.7069,0.0,8.0204,8.3214,0.0,0.0,0.0,0.0,0.0,0.0,0.0,0.0,0.0,0.0,0.0,0.0,0.0,0.0,0.0,0.0,0.0,0.0,9.4973,9.4464,9.4214,9.3313,9.2922,9.2988,9.2988,9.2988,9.2988,9.2988,9.2988,9.2988,0.0,9.2282,9.1093,9.0685,8.9793,8.8716,8.827,8.8084,8.8084,8.8084,8.7787,8.723,8.6004,8.4815,8.3789,8.3343,8.2675,8.1931,8.1523,8.0817,8.0185,8.0259,7.9665,7.9033,7.9405,7.9553,7.9591,7.9591,7.9591,7.9702,8.0074,8.0134,8.0134,8.0134,8.0431,8.058,8.0208,8.0134,7.9985,7.9591,7.9182,7.881,7.8364,7.829,7.829,7.829,7.829,7.829,7.829,7.829,7.829,7.829,7.829,7.829,7.829,7.829,7.829,7.829,7.829,7.8359,7.8509,7.8359,7.8359,7.8509,7.8359,7.7881,6.8104,7.033,7.2349,7.1711,7.3729,7.5763,7.5527,7.5601,7.5821,7.6004,7.6481,7.7105,0.0,7.9543,0.0,8.6591,0.0,0.0,0.0,0.0,0.0,0.0,0.0,0.0,0.0,0.0,0.0,0.0,0.0,0.0,0.0,0.0,0.0,0.0,9.4258,9.3917,9.3917,9.3322,9.2988,9.2988,9.2988,9.2988,9.2988,9.2988,9.2988,9.2988,9.2988,9.2393,9.1353,9.0759,8.9904,8.8938,8.8344,8.8084,8.8084,8.8084,8.7527,8.6709,8.6078,8.5335,8.4555,8.3752,8.2935,8.2266,8.208,8.1411,8.0877,8.1746,8.1226,8.0334,8.0148,8.0408,8.0691,8.0691,8.0691,8.0765,8.0965,8.1003,8.1003,8.1003,8.1151,8.1211,8.104,8.1003,8.0817,8.0185,7.9925,7.9553,7.8959,7.8847,7.881,7.8587,7.8587,7.8541,7.841,7.8444,7.8501,7.8592,7.8444,7.8414,7.8482,7.8495,7.8495,7.8495,7.8552,7.866,7.8903,7.8726,7.8738,7.8801,7.8568,7.8082,6.9302,7.1174,7.2496,7.2422,7.3707,7.5344,7.6812,7.7729,7.8552,7.9302,0.0,0.0,0.0,8.215,8.5086,0.0,0.0,0.0,0.0,0.0,0.0,0.0,0.0,0.0,0.0,0.0,0.0,0.0,0.0,0.0,0.0,0.0,0.0,0.0,0.0,9.3099,9.3099,9.3025,9.2988,9.2988,9.2988,9.2988,9.2988,9.2988,9.2988,9.2988,9.2988,9.2059,9.0573,9.0536,8.957,8.8158,8.8121,8.8084,8.8084,8.8084,8.7527,8.6784,8.6747,8.6189,8.5372,8.4592,8.3789,8.2972,8.2229,8.1411,8.0877,8.1746,8.2452,8.2749,8.2006,8.1263,8.0691,8.0691,8.0691,8.0914,8.1746,8.1894,8.1894,8.1894,8.2526,8.2786,8.2043,8.1894,8.1894,8.182,8.1151,8.0594,8.052,8.052,8.0245,7.9479,7.9405,7.9205,7.8717,7.8879,7.9159,7.9418,7.8941,7.8787,7.9041,7.9054,7.9054,7.9054,7.9293,7.9403,7.9453,7.967,7.9562,7.9049,7.9037,7.8728,6.8361,7.0513,7.2496,7.2496,7.4111,7.6093,7.7745,7.914,8.0461,8.1782,8.3177,0.0,0.0,0.0,0.0,0.0,0.0,0.0,0.0,0.0,0.0,0.0,0.0,0.0,0.0,0.0,0.0,0.0,0.0,0.0,0.0,0.0,0.0,0.0,0.0,9.2988,9.2988,9.2988,9.2988,9.2988,9.2988,9.2988,9.2988,9.2431,9.2468,9.2951,9.191,9.1353,9.1167,9.0164,8.9384,8.879,8.8307,8.8084,8.8084,8.8084,8.7898,8.7527,8.7007,8.6264,8.5483,8.4666,8.3864,8.3158,8.286,8.2526,8.234,8.2637,8.3343,8.3886,8.3566,8.3269,8.2994,8.2994,8.2623,8.2326,8.2675,8.2749,8.2749,8.2749,8.3009,8.3121,8.2786,8.2749,8.26,8.208,8.1709,8.13,8.0765,8.0861,8.0637,7.984,7.9602,7.9402,7.9198,7.9445,7.9712,7.9967,7.9654,7.949,7.9589,7.9589,7.9589,7.9589,7.9718,7.9844,8.0015,7.9939,7.9898,7.9854,7.9691,7.9507,6.7774,6.9853,7.2129,7.2129,7.4331,7.7121,7.958,8.1158,8.281,8.5179,8.5306,0.0,0.0,0.0,0.0,0.0,0.0,0.0,0.0,0.0,0.0,0.0,0.0,0.0,0.0,0.0,0.0,0.0,0.0,0.0,0.0,0.0,0.0,0.0,0.0,0.0,9.2988,9.2988,9.2988,9.2988,9.2728,9.2728,9.2951,9.2096,9.2022,9.2505,9.1093,9.0685,9.087,8.9756,8.9161,8.8864,8.8323,8.8084,8.8047,8.7787,8.7861,8.7935,8.6821,8.6226,8.5781,8.474,8.4035,8.3529,8.3269,8.3195,8.3269,8.3529,8.4146,8.4852,8.5075,8.4963,8.4778,8.4778,8.4369,8.3975,8.3975,8.3752,8.3641,8.3886,8.3752,8.3604,8.3604,8.3604,8.3342,8.2729,8.2622,8.2481,8.2088,8.2195,8.1971,8.1182,8.0446,8.0071,8.0146,8.0151,8.0257,8.0523,8.0467,8.033,8.0144,8.0135,8.0135,8.0135,8.0229,8.0378,8.0531,8.0467,8.0393,8.0405,8.0238,8.0058,6.7921,6.9449,7.1307,7.1307,7.4353,7.839,8.25,8.4042,8.5747,8.9784,8.8096,8.6591,8.8996,0.0,0.0,0.0,0.0,0.0,0.0,0.0,0.0,0.0,0.0,0.0,0.0,0.0,0.0,0.0,0.0,0.0,0.0,0.0,0.0,0.0,0.0,0.0,9.2988,9.2988,9.2988,9.2988,9.2096,9.2133,9.2951,9.2096,9.1688,9.165,9.0833,9.0016,8.931,8.9273,8.8827,8.8084,8.8084,8.8084,8.7973,8.7118,8.7341,8.7861,8.6189,8.6115,8.6524,8.4926,8.4369,8.422,8.3455,8.3195,8.3381,8.4161,8.4963,8.5781,8.6613,8.6242,8.5647,8.5595,8.5595,8.5595,8.561,8.4978,8.4644,8.5477,8.4956,8.4436,8.4436,8.4436,8.4327,8.4077,8.4029,8.4228,8.485,8.4877,8.4583,8.3804,8.2215,8.1315,8.1595,8.1052,8.0807,8.1084,8.1349,8.1274,8.0741,8.0724,8.0724,8.0724,8.0977,8.1099,8.1099,8.1362,8.1242,8.0696,8.0696,8.042,6.8068,6.9059,7.0881,7.2569,7.5616,7.958,8.4739,8.5673,8.6775,0.0,9.1106,9.0225,0.0,0.0,0.0,0.0,0.0,0.0,0.0,0.0,0.0,0.0,0.0,0.0,0.0,0.0,0.0,0.0,0.0,0.0,0.0,0.0,0.0,0.0,0.0,0.0,9.2988,9.2988,9.2691,9.2096,9.1836,9.1836,9.2022,9.0647,9.0313,9.0796,8.9421,8.9013,8.9273,8.8678,8.8323,8.8084,8.8084,8.8084,8.7973,8.7118,8.6969,8.7044,8.5966,8.5372,8.5038,8.4555,8.4012,8.3529,8.3269,8.3195,8.3381,8.4161,8.4963,8.5849,8.705,8.7599,8.7597,8.6668,8.6004,8.5693,8.6092,8.6012,8.6065,8.6694,8.6189,8.5834,8.6413,8.5531,8.4935,8.5474,8.5546,8.567,8.6039,8.5088,8.4297,8.426,8.2928,8.2073,8.216,8.1605,8.1283,8.1362,8.1466,8.1446,8.128,8.1274,8.1274,8.1274,8.1335,8.1368,8.1368,8.1466,8.1408,8.1263,8.1263,8.1168,6.9229,6.9853,7.1321,7.4368,7.7598,8.1599,8.7582,8.9307,0.0,0.0,0.0,9.2501,0.0,0.0,0.0,0.0,0.0,0.0,0.0,0.0,0.0,0.0,0.0,0.0,0.0,0.0,0.0,0.0,0.0,0.0,0.0,0.0,0.0,0.0,0.0,0.0,9.2468,9.2468,9.2059,9.1205,9.0907,9.0759,9.0722,8.9756,8.957,8.9942,8.8641,8.8381,8.879,8.8307,8.8084,8.8084,8.8084,8.8084,8.7973,8.7118,8.7007,8.7118,8.5632,8.5,8.4778,8.4124,8.3604,8.3195,8.3195,8.3318,8.3578,8.4063,8.5185,8.6476,8.7271,8.833,8.9033,8.8179,8.7595,8.7343,8.7701,8.7588,8.7546,8.8193,8.7736,8.7334,8.784,8.6791,8.6142,8.6915,8.693,8.6935,8.7089,8.5915,8.5151,8.5326,8.428,8.3565,8.3565,8.2593,8.2006,8.2006,8.1691,8.1497,8.1497,8.1497,8.1497,8.1497,8.1497,8.1497,8.1497,8.1497,8.1497,8.1497,8.1497,8.1497,7.0793,7.1307,7.2408,7.6518,8.0314,8.4646,9.0757,9.3932,9.5785,9.6465,0.0,0.0,0.0,0.0,0.0,0.0,0.0,0.0,0.0,0.0,0.0,0.0,0.0,0.0,0.0,0.0,0.0,0.0,0.0,0.0,0.0,0.0,0.0,0.0,0.0,0.0,9.1725,9.165,9.1205,0.0,8.9644,8.9273,8.9198,8.9198,8.9198,8.9161,8.8418,8.8084,8.8084,8.8084,8.8047,8.7973,8.7973,8.7935,8.7765,8.6895,8.7118,8.7527,8.5127,8.486,8.5314,8.3752,8.3312,8.3332,8.3332,8.3638,8.4014,8.4177,8.5697,8.7357,8.7566,8.8797,8.9968,8.9988,8.9897,8.9824,8.9961,8.9408,8.9125,8.9882,8.9408,8.8896,8.8972,8.8199,8.7766,8.8404,8.8089,8.7841,8.7995,8.7183,8.6603,8.6603,8.5836,8.5294,8.5294,8.3747,8.2786,8.2786,8.1968,8.1497,8.1497,8.1497,8.1497,8.1497,8.1497,8.1497,8.1497,8.1497,8.1497,8.1497,8.1497,8.1497,7.044,7.1284,7.3377,7.8075,8.4535,9.0445,9.3161,9.5144,9.6318,9.5859,0.0,0.0,0.0,0.0,0.0,0.0,0.0,0.0,0.0,0.0,0.0,0.0,0.0,0.0,0.0,0.0,0.0,0.0,0.0,0.0,0.0,0.0,0.0,0.0,0.0,9.1873,9.1688,9.1056,9.035,0.0,8.9384,8.8976,8.8344,8.8344,8.8344,8.836,8.8158,8.8084,8.8084,8.8084,8.7712,8.7081,8.7081,8.6672,8.6041,8.5223,8.5409,8.5892,8.4087,8.4244,8.5071,8.406,8.404,8.4403,8.4424,8.4531,8.4901,8.6256,8.6989,8.7775,8.9519,9.0232,9.0656,9.1091,9.053,9.0006,9.0439,9.0435,9.0502,9.1104,9.0564,9.0265,9.0921,8.9802,8.9061,8.9846,8.8186,8.7383,8.8737,8.7577,8.6603,8.6603,8.5836,8.5294,8.5294,8.3747,8.2786,8.2786,8.1968,8.1497,8.1497,8.1497,8.1497,8.1497,8.1497,8.1497,8.1497,8.1497,8.1497,8.1497,8.1497,8.1497,7.2202,7.3891,7.6974,8.3361,8.9014,9.3418,9.507,9.6098,9.6575,9.6171,0.0,0.0,0.0,0.0,0.0,0.0,0.0,0.0,0.0,0.0,0.0,0.0,0.0,0.0,0.0,0.0,0.0,0.0,0.0,0.0,0.0,0.0,0.0,0.0,9.1576,9.0945,9.0536,9.0127,8.9533,8.8716,8.8716,8.8493,8.8084,8.8084,8.7861,8.749,8.7914,8.7638,8.6932,8.7304,8.6969,8.6226,8.6226,8.5966,8.5558,8.5112,8.5418,8.5814,8.4545,8.4709,8.541,8.458,8.4542,8.4903,8.5339,8.5636,8.6004,8.6905,8.7945,8.8938,8.9718,9.0526,9.1273,9.1568,9.1168,9.0799,9.1125,9.1218,9.1299,9.1583,9.0953,9.0671,9.1561,9.0981,9.0284,8.9859,8.9008,8.8621,8.9131,8.8041,8.7067,8.6642,8.6571,8.6371,8.5952,8.514,8.4289,8.3483,8.3012,8.2548,8.2122,8.2509,8.2348,8.1536,8.1497,8.1497,8.1497,8.1929,8.1929,8.1497,8.1929,8.189,7.3949,7.69,8.1195,8.8573,9.2354,9.4703,9.6171,9.6612,9.6685,9.6685,0.0,0.0,0.0,0.0,0.0,0.0,0.0,0.0,0.0,0.0,0.0,0.0,0.0,0.0,0.0,0.0,0.0,0.0,0.0,0.0,0.0,0.0,9.1502,9.1502,9.0722,8.9979,8.931,8.9161,8.8678,8.7861,8.7712,8.775,8.7861,8.7712,8.7341,8.6821,8.7564,8.7007,8.5632,8.6301,8.6115,8.5387,8.5492,8.5425,8.5328,8.5423,8.5816,8.6222,8.5346,8.5632,8.6214,8.5263,8.5124,8.5497,8.6253,8.6652,8.6918,8.7397,8.8743,8.9999,8.9574,9.0583,9.1716,9.1716,9.1666,9.1637,9.1702,9.1716,9.1716,9.1716,9.1135,9.0826,9.1367,9.1484,9.1058,8.982,8.9936,9.0014,8.9472,8.8544,8.7609,8.6912,8.7454,8.7531,8.668,8.6603,8.5952,8.4405,8.4173,8.3792,8.3057,8.3715,8.3438,8.1961,8.1961,8.1884,8.1729,8.2432,8.2432,8.1729,8.2316,8.22,7.2753,7.7656,8.3858,8.8409,9.195,9.452,9.5474,0.0,9.6685,0.0,0.0,0.0,0.0,0.0,0.0,0.0,0.0,0.0,0.0,0.0,0.0,0.0,0.0,0.0,0.0,0.0,0.0,0.0,0.0,0.0,0.0,9.1093,9.0647,9.0647,8.9867,8.9421,8.931,8.8604,8.7824,8.6969,8.6264,8.6301,8.6932,8.6264,8.6264,8.6821,8.6932,8.6449,8.5595,8.5706,8.5298,8.4614,8.5022,8.4727,8.417,8.4716,8.5382,8.5944,8.5185,8.6188,8.7543,8.5982,8.6303,8.7271,8.7542,8.7086,8.7022,8.9289,8.9655,8.9652,9.1005,9.1515,9.1716,9.1716,9.1709,9.1702,9.1709,9.1716,9.1716,9.1716,9.16,9.1329,9.0671,9.0555,9.0749,9.129,9.0207,8.9556,9.0168,8.8892,8.7841,8.7725,8.7841,8.7531,8.668,8.6603,8.6177,8.5217,8.4482,8.4057,8.3947,8.4018,8.3979,8.3747,8.3747,8.336,8.2625,8.2748,8.2748,8.2625,8.1968,8.1613,7.7084,8.0608,8.4702,9.0097,9.2207,9.3455,9.5658,9.6098,9.6171,0.0,0.0,0.0,0.0,0.0,0.0,0.0,0.0,0.0,0.0,0.0,0.0,0.0,0.0,0.0,0.0,0.0,0.0,0.0,0.0,0.0,9.1019,9.0276,8.983,8.983,8.905,8.8641,8.8641,8.7787,8.6932,8.6115,8.5781,8.5781,8.6115,8.5743,8.5558,8.5483,8.5929,8.5409,8.4324,8.5033,8.4882,8.4247,8.472,8.4739,8.4505,8.4778,8.5266,8.5711,8.5388,8.6465,8.7732,8.6507,8.687,8.7789,8.7824,8.7606,8.7613,8.9272,8.9472,8.9479,9.0671,9.0981,9.1097,9.16,9.1716,9.1716,9.1716,9.1716,9.1561,9.1058,9.1367,9.129,8.9975,9.0516,9.1097,9.0981,9.0749,9.0555,9.04,8.9743,8.8931,8.7995,8.835,8.8079,8.6726,8.7067,8.6758,8.5372,8.5449,8.5294,8.4792,8.5256,8.5256,8.4792,8.4327,8.3902,8.3521,8.3521,8.3289,8.2786,8.2896,8.2703,7.958,8.1709,8.3948,9.0041,9.151,9.2281,9.5401,0.0,9.5675,0.0,0.0,0.0,0.0,0.0,0.0,0.0,0.0,0.0,0.0,0.0,0.0,0.0,0.0,0.0,0.0,0.0,0.0,0.0,0.0,0.0,9.0202,8.9198,8.8641,8.8641,8.7861,8.7452,8.7452,8.6598,8.6004,8.5595,8.5186,8.5165,8.5462,8.5081,8.4735,8.4554,8.522,8.47,8.3489,8.4589,8.4733,8.4288,8.4811,8.5048,8.5103,8.5244,8.5521,8.5817,8.5834,8.6709,8.7687,8.6799,8.7142,8.7918,8.7918,8.7763,8.7802,8.8892,8.9208,8.9402,9.0207,9.0555,9.0903,9.1561,9.1716,9.1716,9.1716,9.1716,9.1445,9.0555,9.1097,9.1213,8.9743,9.071,9.1484,9.0826,9.129,9.1484,9.0826,9.0555,8.9859,8.8382,8.9008,8.8814,8.7067,8.7918,8.7802,8.6068,8.6564,8.6526,8.5681,8.6255,8.63,8.5643,8.5024,8.4637,8.4405,8.4405,8.4057,8.3444,8.3902,8.3747,7.6665,7.8736,8.1175,8.6114,8.9014,9.1326,9.3859,0.0,0.0,0.0,0.0,0.0,0.0,0.0,0.0,0.0,0.0,0.0,0.0,0.0,0.0,0.0,0.0,0.0,0.0,0.0,0.0,0.0,0.0,0.0,8.9347,8.7824,8.6932,8.6932,8.6152,8.5743,8.5743,8.4926,8.4889,8.5558,8.4049,8.3969,8.5095,8.3612,8.3613,8.4806,8.5147,8.478,8.4016,8.4655,8.4899,8.4915,8.5361,8.5558,8.5622,8.6192,8.6426,8.6447,8.651,8.7124,8.7757,8.6874,8.7183,8.7918,8.7918,8.7299,8.7035,8.8698,8.9208,8.9402,9.0207,9.1019,9.1638,9.1677,9.1716,9.1716,9.1716,9.1716,9.1445,9.0555,9.1097,9.1406,9.0478,9.1097,9.1677,9.1638,9.1677,9.1677,9.1638,9.0903,9.0052,8.9208,8.9859,8.9665,8.7995,8.9317,8.9549,8.7879,8.7802,8.7454,8.6564,8.6564,8.6564,8.6526,8.6487,8.6061,8.5256,8.5256,8.5217,8.514,8.4443,8.4095,7.5946,7.7745,7.9947,8.3748,8.65,8.8776,9.0721,9.2611,9.3988,0.0,0.0,0.0,0.0,0.0,0.0,0.0,0.0,0.0,0.0,0.0,0.0,0.0,0.0,0.0,0.0,0.0,0.0,0.0,0.0,0.0,8.8493,8.6932,8.6264,8.6784,8.6004,8.5335,8.4815,8.4838,8.4778,8.4574,8.4342,8.4189,8.4123,8.4143,8.4115,8.4051,8.4556,8.4708,8.4564,8.4599,8.4901,8.5464,8.5964,8.6208,8.6268,8.6482,8.6569,8.6576,8.6596,8.7183,8.7763,8.6874,8.7183,8.7802,8.7222,8.6835,8.6958,8.8705,8.8814,8.8814,9.0749,9.1058,9.1019,9.1561,9.1716,9.1716,9.1716,9.1716,9.16,9.129,9.1484,9.16,9.129,9.1484,9.1716,9.1716,9.1716,9.1716,9.1716,9.1445,9.0903,9.0052,9.0246,8.9936,8.8814,8.9279,8.9356,8.8776,8.8196,8.7995,8.8273,8.7731,8.7686,8.8273,8.8273,8.7577,8.6139,8.5565,8.5294,8.5294,8.4985,8.4869,7.4845,7.6313,7.8332,8.239,8.4005,8.5453,8.8666,9.0297,9.1416,0.0,0.0,0.0,0.0,0.0,0.0,0.0,0.0,0.0,0.0,0.0,0.0,0.0,0.0,0.0,0.0,0.0,0.0,0.0,0.0,0.0,8.723,8.5929,8.5186,8.5186,8.4666,8.4079,8.3443,8.3739,8.3866,8.3885,8.3945,8.4067,8.4256,8.4019,8.3993,8.4116,8.3682,8.3995,8.4727,8.4426,8.4618,8.5198,8.5569,8.5873,8.6145,8.6145,8.6332,8.6603,8.6603,8.699,8.7377,8.6796,8.699,8.7377,8.6796,8.6796,8.7267,8.8428,8.8737,8.9124,9.0826,9.1058,9.0981,9.1561,9.1716,9.1716,9.1716,9.1716,9.1716,9.1716,9.1716,9.1716,9.1716,9.1716,9.1716,9.1716,9.1716,9.1716,9.1716,9.1716,9.1367,9.0478,9.0671,9.0516,8.9665,8.9859,8.9898,8.9634,8.9047,8.8892,8.9208,8.8621,8.8621,8.9208,8.9208,8.8628,8.7461,8.661,8.6339,8.661,8.6029,8.5759,0.0,0.0,0.0,8.1693,8.1379,8.1358,8.7619,0.0,8.78,0.0,0.0,0.0,0.0,0.0,0.0,0.0,0.0,0.0,0.0,0.0,0.0,0.0,0.0,0.0,0.0,0.0,0.0,0.0,0.0,8.5558,8.5595,8.4815,8.3641,8.2109,8.1998,8.1866,8.157,8.1557,8.222,8.3582,8.2745,8.3446,8.543,8.3043,8.3118,8.5007,8.2593,8.2649,8.4434,8.4179,8.4095,8.4095,8.414,8.4598,8.5294,8.5333,8.5875,8.6603,8.6603,8.6603,8.6603,8.6603,8.6603,8.6603,8.6642,8.7222,8.7918,8.7957,8.9163,9.04,9.0439,9.1058,9.1716,9.1716,9.1716,9.1716,9.1716,9.1716,9.1716,9.1716,9.1716,9.1716,9.1716,9.1716,9.1716,9.1716,9.1716,9.1716,9.1716,9.1716,9.1367,9.0516,9.1213,9.1367,9.0516,9.1213,9.1329,9.0478,9.04,9.0052,8.9324,8.9247,8.9247,8.9285,8.9285,8.9285,8.9285,8.8389,8.835,8.9131,8.7383,8.6603,7.2386,0.0,0.0,0.0,0.0,0.0,0.0,0.0,0.0,0.0,0.0,0.0,0.0,0.0,0.0,0.0,0.0,0.0,0.0,0.0,0.0,0.0,0.0,0.0,0.0,0.0,0.0,0.0,8.5038,8.5,8.5558,8.431,8.3516,8.3455,8.2255,8.2084,8.3008,8.2769,8.2884,8.329,8.3404,8.3495,8.3565,8.3516,8.3493,8.3412,8.2735,8.2767,8.3259,8.3205,8.3521,8.4173,8.4753,8.5101,8.5372,8.6029,8.6371,8.6603,8.6603,8.6603,8.6603,8.6603,8.6603,8.6719,8.7338,8.7725,8.815,8.9356,9.0052,9.0555,9.1174,9.1522,9.1716,9.1716,9.1716,9.1716,9.1716,9.1716,9.1716,9.1716,9.1716,9.1716,9.1716,9.1716,9.1716,9.1716,9.1716,9.1716,9.1716,9.1716,9.16,9.1367,9.1561,9.16,9.1367,9.1561,9.16,9.1367,9.0749,9.0594,9.0981,9.04,9.0362,9.0981,9.1019,9.1019,9.1019,8.9549,8.8621,8.8234,8.7106,8.6603,0.0,0.0,0.0,0.0,0.0,0.0,7.79,7.8692,0.0,0.0,0.0,0.0,0.0,0.0,0.0,0.0,0.0,0.0,0.0,0.0,0.0,0.0,0.0,0.0,0.0,0.0,0.0,8.3589,8.3106,8.3148,8.3788,8.2976,8.2553,8.2753,8.1842,8.1664,8.2359,8.2217,8.2411,8.3033,8.2936,8.3044,8.3328,8.3128,8.2935,8.2786,8.2432,8.2277,8.2277,8.267,8.2896,8.3089,8.394,8.4482,8.4908,8.5759,8.63,8.6603,8.6603,8.6603,8.6603,8.6603,8.6603,8.668,8.7183,8.7609,8.8111,8.9085,8.9859,9.0594,9.1484,9.1716,9.1716,9.1716,9.1716,9.1716,9.1716,9.1716,9.1716,9.1716,9.1716,9.1716,9.1716,9.1716,9.1716,9.1716,9.1716,9.1716,9.1716,9.1716,9.1716,9.1716,9.1716,9.1716,9.1716,9.1716,9.1716,9.1716,9.1213,9.1174,9.1677,9.1213,9.1174,9.1677,9.1716,9.1716,9.1716,9.0362,8.9279,8.8428,8.8273,8.7809,0.0,0.0,0.0,0.0,0.0,0.0,7.8645,7.7554,7.6635,0.0,0.0,0.0,0.0,0.0,0.0,0.0,0.0,0.0,0.0,0.0,0.0,0.0,0.0,0.0,0.0,8.234,8.1523,8.0765,8.0762,8.0953,8.1394,8.142,8.1379,8.1233,8.1129,8.1012,8.0914,8.0837,8.1414,8.267,8.1884,8.2316,8.3747,8.2193,8.1929,8.2625,8.1845,8.1497,8.1575,8.2355,8.22,8.1613,8.2664,8.3521,8.4211,8.5101,8.5952,8.6603,8.6603,8.6603,8.6603,8.6603,8.6603,8.6603,8.6719,8.7338,8.8073,8.8266,8.9395,9.071,9.1484,9.1716,9.1716,9.1716,9.1716,9.1716,9.1716,9.1716,9.1716,9.1716,9.1716,9.1716,9.1716,9.1716,9.1716,9.1716,9.1716,9.1716,9.1716,9.1716,9.1716,9.1716,9.1716,9.1716,9.1716,9.1716,9.1716,9.1716,9.1716,9.1716,9.1716,9.1716,9.1716,9.1716,9.1716,9.1716,9.1716,9.0826,9.0014,8.9363,8.9975,8.9472,0.0,0.0,0.0,0.0,0.0,0.0,7.2119,7.2844,7.446,0.0,0.0,0.0,0.0,0.0,0.0,0.0,0.0,0.0,0.0,0.0,0.0,0.0,0.0,0.0,0.0,8.1448,8.0877,8.0691,8.1062,8.133,8.1458,8.1237,8.161,8.2733,8.1474,8.1284,8.2366,8.1671,8.1472,8.1729,8.1575,8.1691,8.2,8.1652,8.1575,8.1729,8.1575,8.1497,8.1497,8.1691,8.1652,8.1729,8.394,8.4521,8.4289,8.5797,8.6448,8.6603,8.6603,8.6603,8.6603,8.6603,8.6603,8.6719,8.7415,8.8273,8.924,9.0594,9.1174,9.1484,9.1677,9.1716,9.1716,9.1716,9.1716,9.1716,9.1716,9.1716,9.1716,9.1716,9.1716,9.1716,9.1716,9.1716,9.1716,9.1716,9.1716,9.1716,9.1716,9.1716,9.1716,9.1716,9.1716,9.1716,9.1716,9.1716,9.1716,9.1716,9.1716,9.1716,9.1716,9.1716,9.1716,9.1716,9.1716,9.1716,9.1716,9.0826,9.0323,9.013,8.9665,8.924,0.0,0.0,0.0,7.2341,0.0,0.0,0.0,7.171,7.1886,7.5118,0.0,0.0,0.0,0.0,0.0,0.0,0.0,0.0,0.0,0.0,0.0,0.0,0.0,0.0,0.0,8.0371,8.0037,7.984,8.0117,8.0472,8.0965,8.0924,8.128,8.2263,8.1521,8.1442,8.2161,8.1729,8.1497,8.1497,8.1497,8.1497,8.1497,8.1497,8.1497,8.1497,8.1497,8.1497,8.1536,8.1968,8.189,8.1691,8.3863,8.4443,8.4289,8.5991,8.6603,8.6603,8.6603,8.6603,8.6603,8.6603,8.6603,8.668,8.7106,8.7847,8.8814,9.0091,9.0749,9.1135,9.16,9.1716,9.1716,9.1716,9.1716,9.1716,9.1716,9.1716,9.1716,9.1716,9.1716,9.1716,9.1716,9.1716,9.1716,9.1716,9.1716,9.1716,9.1716,9.1716,9.1716,9.1716,9.1716,9.1716,9.1716,9.1716,9.1716,9.1716,9.1716,9.1716,9.1716,9.1716,9.1716,9.1716,9.1716,9.1716,9.1716,9.1251,9.1058,9.1058,9.0633,9.0207,0.0,0.0,0.0,0.0,0.0,7.2386,0.0,0.0,0.0,7.3892,0.0,0.0,0.0,0.0,0.0,0.0,0.0,0.0,0.0,0.0,0.0,0.0,0.0,0.0,0.0,7.9205,7.9141,7.9016,7.9065,7.9539,8.0479,8.0718,8.0992,8.1407,8.1466,8.1497,8.1497,8.1497,8.1497,8.1497,8.1497,8.1497,8.1497,8.1497,8.1497,8.1497,8.1497,8.1497,8.1536,8.2277,8.2122,8.1691,8.3592,8.425,8.4289,8.5991,8.6603,8.6603,8.6603,8.6603,8.6603,8.6603,8.6603,8.6642,8.6996,8.7577,8.835,8.9395,9.013,9.0826,9.1522,9.1716,9.1716,9.1716,9.1716,9.1716,9.1716,9.1716,9.1716,9.1716,9.1716,9.1716,9.1716,9.1716,9.1716,9.1716,9.1716,9.1716,9.1716,9.1716,9.1716,9.1716,9.1716,9.1716,9.1716,9.1716,9.1716,9.1716,9.1716,9.1716,9.1716,9.1716,9.1716,9.1716,9.1716,9.1716,9.1716,9.1716,9.1716,9.1716,9.1716,9.1329,0.0,0.0,0.0,0.0,7.4943,0.0,0.0,0.0,7.1527,7.0574,0.0,0.0,0.0,0.0,0.0,0.0,0.0,0.0,0.0,0.0,0.0,0.0,0.0,0.0,0.0,0.0,7.8216,7.9024,7.9143,7.9601,8.0608,8.1075,8.1349,8.1485,8.1491,8.1497,8.1497,8.1497,8.1497,8.1497,8.1497,8.1497,8.1497,8.1497,8.1497,8.1497,8.1497,8.1497,8.1497,8.1613,8.1575,8.1729,8.4211,8.4714,8.4289,8.5991,8.6603,8.6603,8.6603,8.6603,8.6603,8.6603,8.6603,8.688,8.8428,8.8969,8.9395,9.0981,9.1484,9.16,9.1677,9.1716,9.1716,9.1716,9.1716,9.1716,9.1716,9.1716,9.1716,9.1716,9.1716,9.1716,9.1716,9.1716,9.1716,9.1716,9.1716,9.1716,9.1716,9.1716,9.1716,9.1716,9.1716,9.1716,9.1716,9.1716,9.1716,9.1716,9.1716,9.1716,9.1716,9.1716,9.1716,9.1716,9.1716,9.1716,9.1716,9.1716,9.1716,9.1716,9.1716,9.1638,0.0,0.0,0.0,0.0,0.0,0.0,0.0,0.0,6.9546,0.0,0.0,0.0,0.0,0.0,0.0,0.0,0.0,0.0,0.0,0.0,0.0,0.0,0.0,0.0,0.0,0.0,0.0,0.0,0.0,7.962,8.0304,8.1058,8.1466,8.1497,8.1497,8.1497,8.1497,8.1497,8.1497,8.1497,8.1497,8.1497,8.1497,8.1497,8.1497,8.1497,8.1497,8.1497,8.1497,8.1497,8.1497,8.1652,8.3244,8.394,8.425,8.541,8.6184,8.6603,8.6603,8.6603,8.6603,8.6603,8.6603,8.6835,8.8079,8.8814,8.944,9.0633,9.1329,9.1716,9.1716,9.1716,9.1716,9.1716,9.1716,9.1716,9.1716,9.1716,9.1716,9.1716,9.1716,9.1716,9.1716,9.1716,9.1716,9.1716,9.1716,9.1716,9.1716,9.1716,9.1716,9.1716,9.1716,9.1716,9.1716,9.1716,9.1716,9.1716,9.1716,9.1716,9.1716,9.1716,9.1716,9.1716,9.1716,9.1716,9.1716,9.1716,9.1716,9.1716,9.1716,9.1716,7.6767,0.0,0.0,0.0,0.0,0.0,0.0,0.0,0.0,0.0,0.0,0.0,0.0,0.0,0.0,0.0,0.0,0.0,0.0,0.0,0.0,0.0,0.0,0.0,0.0,0.0,0.0,0.0,7.8177,7.8934,7.9752,8.0428,8.1033,8.1497,8.1497,8.1497,8.1497,8.1497,8.1497,8.1497,8.1497,8.1497,8.1497,8.1497,8.1497,8.1497,8.1497,8.1497,8.1497,8.1497,8.1497,8.1575,8.22,8.3128,8.4211,8.4985,8.5836,8.6603,8.6603,8.6603,8.6603,8.6603,8.6758,8.7106,8.8002,8.8853,8.9711,9.0516,9.1213,9.1716,9.1716,9.1716,9.1716,9.1716,9.1716,9.1716,9.1716,9.1716,9.1716,9.1716,9.1716,9.1716,9.1716,9.1716,9.1716,9.1716,9.1716,9.1716,9.1716,9.1716,9.1716,9.1716,9.1716,9.1716,9.1716,9.1716,9.1716,9.1716,9.1716,9.1716,9.1716,9.1716,9.1716,9.1716,9.1716,9.1716,9.1716,9.1716,9.1716,9.1716,9.1716,9.1716,0.0,0.0,0.0,0.0,0.0,0.0,0.0,0.0,7.1602,0.0,0.0,0.0,0.0,0.0,0.0,0.0,0.0,0.0,0.0,0.0,0.0,0.0,0.0,0.0,0.0,0.0,0.0,7.8119,7.7081,7.717,7.8944,7.9067,7.984,8.1459,8.1497,8.1497,8.1497,8.1497,8.1497,8.1497,8.1497,8.1497,8.1497,8.1497,8.1497,8.1497,8.1497,8.1497,8.1497,8.1497,8.1497,8.1497,8.1536,8.2587,8.4211,8.4985,8.5836,8.6603,8.6603,8.6603,8.6603,8.6603,8.7183,8.8034,8.8892,8.9704,9.0555,9.1406,9.1677,9.1716,9.1716,9.1716,9.1716,9.1716,9.1716,9.1716,9.1716,9.1716,9.1716,9.1716,9.1716,9.1716,9.1716,9.1716,9.1716,9.1716,9.1716,9.1716,9.1716,9.1716,9.1716,9.1716,9.1716,9.1716,9.1716,9.1716,9.1716,9.1716,9.1716,9.1716,9.1716,9.1716,9.1716,9.1716,9.1716,9.1716,9.1716,9.1716,9.1716,9.1716,9.1716,9.1716,0.0,0.0,8.0817,7.7807,0.0,0.0,0.0,0.0,0.0,0.0,0.0,0.0,0.0,0.0,0.0,0.0,0.0,0.0,0.0,0.0,0.0,0.0,0.0,0.0,0.0,0.0,0.0,7.5718,7.5561,7.6026,0.0,7.8873,8.0034,8.0608,8.1188,8.1497,8.1497,8.1497,8.1497,8.1497,8.1497,8.1497,8.1497,8.1497,8.1497,8.1497,8.1497,8.1497,8.1497,8.1497,8.1497,8.1497,8.1497,8.22,8.3289,8.3554,8.4908,8.6603,8.6603,8.6603,8.668,8.726,8.7647,8.815,8.9588,9.0168,9.0594,9.1445,9.1716,9.1716,9.1716,9.1716,9.1716,9.1716,9.1716,9.1716,9.1716,9.1716,9.1716,9.1716,9.1716,9.1716,9.1716,9.1716,9.1716,9.1716,9.1716,9.1716,9.1716,9.1716,9.1716,9.1716,9.1716,9.1716,9.1716,9.1716,9.1716,9.1716,9.1716,9.1716,9.1716,9.1716,9.1716,9.1716,9.2257,9.2296,9.1716,9.2296,9.2257,9.1716,9.1716,9.1716,8.0928,8.1337,0.0,0.0,7.8141,0.0,0.0,0.0,0.0,0.0,0.0,0.0,0.0,0.0,0.0,0.0,0.0,0.0,0.0,0.0,0.0,0.0,0.0,0.0,0.0,0.0,7.4888,7.4277,7.392,7.427,0.0,0.0,7.926,8.0182,8.1033,8.1497,8.1497,8.1497,8.1497,8.1497,8.1497,8.1497,8.1497,8.1497,8.1497,8.1497,8.1497,8.1497,8.1497,8.1497,8.1497,8.1497,8.1497,8.2045,8.2786,8.2786,8.4211,8.6177,8.6487,8.6603,8.668,8.726,8.7647,8.815,8.9549,9.0168,9.071,9.218,9.218,9.1832,9.2412,9.2141,9.1716,9.1716,9.1716,9.1716,9.1716,9.1716,9.1716,9.1716,9.1716,9.1716,9.1716,9.1716,9.1716,9.1716,9.1716,9.1716,9.1716,9.1716,9.1716,9.1716,9.1716,9.1716,9.1716,9.1716,9.1716,9.1716,9.1716,9.1716,9.1716,9.1716,9.2412,9.3959,9.334,9.334,9.3959,9.334,9.2567,9.1716,9.1716,9.1716]}]]